Time,TemperatureF,DewpointF,PressureIn,WindDirection,WindDirectionDegrees,WindSpeedMPH,WindSpeedGustMPH,Humidity,HourlyPrecipIn,Conditions,Clouds,dailyrainin,SoftwareType,DateUTC
2013-02-17 00:00:00,19.8,5.8,29.83,South,176,1.0,2.0,54,0.00,,,0.00,Wunderground v.1.15,2013-02-17 05:00:00,
2013-02-17 00:01:00,19.8,5.8,29.83,South,176,2.0,2.0,54,0.00,,,0.00,Wunderground v.1.15,2013-02-17 05:01:00,
2013-02-17 00:02:00,19.8,5.8,29.83,South,176,1.0,2.0,54,0.00,,,0.00,Wunderground v.1.15,2013-02-17 05:02:00,
2013-02-17 00:05:00,19.7,6.1,29.83,South,176,1.0,2.0,55,0.00,,,0.00,Wunderground v.1.15,2013-02-17 05:05:00,
2013-02-17 00:07:00,19.7,5.7,29.83,South,176,1.0,4.0,54,0.00,,,0.00,Wunderground v.1.15,2013-02-17 05:07:00,
2013-02-17 00:12:00,19.6,5.2,29.83,South,176,1.0,2.0,53,0.00,,,0.00,Wunderground v.1.15,2013-02-17 05:12:00,
2013-02-17 00:14:00,19.6,5.2,29.83,South,176,2.0,2.0,53,0.00,,,0.00,Wunderground v.1.15,2013-02-17 05:14:00,
2013-02-17 00:15:00,19.6,5.2,29.83,South,176,0.0,2.0,53,0.00,,,0.00,Wunderground v.1.15,2013-02-17 05:15:00,
2013-02-17 00:19:00,19.5,4.7,29.83,South,176,1.0,5.0,52,0.00,,,0.00,Wunderground v.1.15,2013-02-17 05:19:00,
2013-02-17 00:22:00,19.5,4.7,29.82,South,176,2.0,2.0,52,0.00,,,0.00,Wunderground v.1.15,2013-02-17 05:22:00,
2013-02-17 00:23:00,19.5,5.5,29.82,South,176,1.0,2.0,54,0.00,,,0.00,Wunderground v.1.15,2013-02-17 05:23:00,
2013-02-17 00:25:00,19.5,5.1,29.82,South,176,1.0,2.0,53,0.00,,,0.00,Wunderground v.1.15,2013-02-17 05:25:00,
2013-02-17 00:29:00,19.4,5.0,29.81,South,176,1.0,2.0,53,0.00,,,0.00,Wunderground v.1.15,2013-02-17 05:29:00,
2013-02-17 00:30:00,19.4,4.6,29.81,South,176,1.0,1.0,52,0.00,,,0.00,Wunderground v.1.15,2013-02-17 05:30:00,
2013-02-17 00:35:00,19.4,5.0,29.81,South,176,3.0,3.0,53,0.00,,,0.00,Wunderground v.1.15,2013-02-17 05:35:00,
2013-02-17 00:36:00,19.3,4.9,29.80,South,176,2.0,3.0,53,0.00,,,0.00,Wunderground v.1.15,2013-02-17 05:36:00,
2013-02-17 00:38:00,19.3,4.9,29.81,South,176,1.0,3.0,53,0.00,,,0.00,Wunderground v.1.15,2013-02-17 05:38:00,
2013-02-17 00:41:00,19.2,4.8,29.80,South,176,2.0,3.0,53,0.00,,,0.00,Wunderground v.1.15,2013-02-17 05:41:00,
2013-02-17 00:42:00,19.2,4.8,29.80,South,176,2.0,3.0,53,0.00,,,0.00,Wunderground v.1.15,2013-02-17 05:42:00,
2013-02-17 00:45:00,19.1,4.8,29.80,South,176,0.0,3.0,53,0.00,,,0.00,Wunderground v.1.15,2013-02-17 05:45:00,
2013-02-17 00:48:00,19.1,4.8,29.80,South,176,1.0,3.0,53,0.00,,,0.00,Wunderground v.1.15,2013-02-17 05:48:00,
2013-02-17 00:51:00,19.1,4.8,29.79,South,176,0.0,1.0,53,0.00,,,0.00,Wunderground v.1.15,2013-02-17 05:51:00,
2013-02-17 00:54:00,19.0,4.2,29.79,South,176,0.0,1.0,52,0.00,,,0.00,Wunderground v.1.15,2013-02-17 05:54:00,
2013-02-17 00:58:00,18.9,4.6,29.79,South,176,0.0,3.0,53,0.00,,,0.00,Wunderground v.1.15,2013-02-17 05:58:00,
2013-02-17 01:02:00,18.9,5.0,29.79,South,176,1.0,2.0,54,0.00,,,0.00,Wunderground v.1.15,2013-02-17 06:02:00,
2013-02-17 01:03:00,18.9,5.0,29.79,South,176,0.0,2.0,54,0.00,,,0.00,Wunderground v.1.15,2013-02-17 06:03:00,
2013-02-17 01:04:00,18.9,5.0,29.78,South,176,0.0,2.0,54,0.00,,,0.00,Wunderground v.1.15,2013-02-17 06:04:00,
2013-02-17 01:05:00,18.9,4.6,29.78,South,176,0.0,2.0,53,0.00,,,0.00,Wunderground v.1.15,2013-02-17 06:05:00,
2013-02-17 01:10:00,18.8,4.9,29.78,South,176,0.0,2.0,54,0.00,,,0.00,Wunderground v.1.15,2013-02-17 06:10:00,
2013-02-17 01:11:00,18.9,5.4,29.79,South,176,2.0,2.0,55,0.00,,,0.00,Wunderground v.1.15,2013-02-17 06:11:00,
2013-02-17 01:12:00,18.8,4.5,29.79,South,176,1.0,2.0,53,0.00,,,0.00,Wunderground v.1.15,2013-02-17 06:12:00,
2013-02-17 01:14:00,18.8,4.5,29.79,South,176,4.0,4.0,53,0.00,,,0.00,Wunderground v.1.15,2013-02-17 06:14:00,
2013-02-17 01:18:00,18.8,4.1,29.79,South,176,2.0,4.0,52,0.00,,,0.00,Wunderground v.1.15,2013-02-17 06:18:00,
2013-02-17 01:19:00,18.9,5.0,29.79,South,176,1.0,4.0,54,0.00,,,0.00,Wunderground v.1.15,2013-02-17 06:19:00,
2013-02-17 01:23:00,18.9,5.0,29.79,South,176,2.0,2.0,54,0.00,,,0.00,Wunderground v.1.15,2013-02-17 06:23:00,
2013-02-17 01:24:00,18.9,5.0,29.79,South,176,1.0,2.0,54,0.00,,,0.00,Wunderground v.1.15,2013-02-17 06:24:00,
2013-02-17 01:25:00,18.9,4.1,29.79,South,176,4.0,4.0,52,0.00,,,0.00,Wunderground v.1.15,2013-02-17 06:25:00,
2013-02-17 01:30:00,18.9,5.0,29.79,South,176,0.0,4.0,54,0.00,,,0.00,Wunderground v.1.15,2013-02-17 06:30:00,
2013-02-17 01:31:00,18.9,5.4,29.79,South,176,2.0,2.0,55,0.00,,,0.00,Wunderground v.1.15,2013-02-17 06:31:00,
2013-02-17 01:32:00,18.8,5.3,29.79,South,176,1.0,2.0,55,0.00,,,0.00,Wunderground v.1.15,2013-02-17 06:32:00,
2013-02-17 01:35:00,18.8,4.5,29.79,South,176,1.0,4.0,53,0.00,,,0.00,Wunderground v.1.15,2013-02-17 06:35:00,
2013-02-17 01:36:00,18.8,4.5,29.79,South,176,2.0,4.0,53,0.00,,,0.00,Wunderground v.1.15,2013-02-17 06:36:00,
2013-02-17 01:39:00,18.8,4.5,29.79,South,176,2.0,7.0,53,0.00,,,0.00,Wunderground v.1.15,2013-02-17 06:39:00,
2013-02-17 01:42:00,18.8,4.9,29.78,South,176,1.0,2.0,54,0.00,,,0.00,Wunderground v.1.15,2013-02-17 06:42:00,
2013-02-17 01:43:00,18.7,4.8,29.78,South,176,0.0,2.0,54,0.00,,,0.00,Wunderground v.1.15,2013-02-17 06:43:00,
2013-02-17 01:45:00,18.7,4.8,29.78,South,176,2.0,2.0,54,0.00,,,0.00,Wunderground v.1.15,2013-02-17 06:45:00,
2013-02-17 01:47:00,18.7,4.8,29.79,South,176,2.0,2.0,54,0.00,,,0.00,Wunderground v.1.15,2013-02-17 06:47:00,
2013-02-17 01:51:00,18.6,5.5,29.79,South,176,1.0,2.0,56,0.00,,,0.00,Wunderground v.1.15,2013-02-17 06:51:00,
2013-02-17 01:54:00,18.6,4.7,29.79,South,176,2.0,3.0,54,0.00,,,0.00,Wunderground v.1.15,2013-02-17 06:54:00,
2013-02-17 01:55:00,18.6,5.5,29.79,South,176,1.0,3.0,56,0.00,,,0.00,Wunderground v.1.15,2013-02-17 06:55:00,
2013-02-17 01:59:00,18.6,5.1,29.80,South,176,2.0,3.0,55,0.00,,,0.00,Wunderground v.1.15,2013-02-17 06:59:00,
2013-02-17 02:01:00,18.6,4.7,29.80,South,176,4.0,4.0,54,0.00,,,0.00,Wunderground v.1.15,2013-02-17 07:01:00,
2013-02-17 02:02:00,18.6,5.1,29.80,South,176,3.0,4.0,55,0.00,,,0.00,Wunderground v.1.15,2013-02-17 07:02:00,
2013-02-17 02:04:00,18.6,5.5,29.80,South,176,3.0,6.0,56,0.00,,,0.00,Wunderground v.1.15,2013-02-17 07:04:00,
2013-02-17 02:06:00,18.5,5.4,29.79,South,176,3.0,6.0,56,0.00,,,0.00,Wunderground v.1.15,2013-02-17 07:06:00,
2013-02-17 02:07:00,18.5,5.4,29.79,South,176,2.0,6.0,56,0.00,,,0.00,Wunderground v.1.15,2013-02-17 07:07:00,
2013-02-17 02:09:00,18.5,5.0,29.79,South,176,1.0,6.0,55,0.00,,,0.00,Wunderground v.1.15,2013-02-17 07:09:00,
2013-02-17 02:11:00,18.4,4.5,29.79,South,176,0.0,2.0,54,0.00,,,0.00,Wunderground v.1.15,2013-02-17 07:11:00,
2013-02-17 02:12:00,18.4,4.9,29.79,South,176,3.0,3.0,55,0.00,,,0.00,Wunderground v.1.15,2013-02-17 07:12:00,
2013-02-17 02:14:00,18.3,5.2,29.79,South,176,3.0,3.0,56,0.00,,,0.00,Wunderground v.1.15,2013-02-17 07:14:00,
2013-02-17 02:17:00,18.3,5.2,29.79,South,176,1.0,3.0,56,0.00,,,0.00,Wunderground v.1.15,2013-02-17 07:17:00,
2013-02-17 02:19:00,18.3,5.2,29.79,South,176,4.0,5.0,56,0.00,,,0.00,Wunderground v.1.15,2013-02-17 07:19:00,
2013-02-17 02:22:00,18.3,4.8,29.79,South,176,1.0,3.0,55,0.00,,,0.00,Wunderground v.1.15,2013-02-17 07:22:00,
2013-02-17 02:24:00,18.2,5.1,29.79,South,176,0.0,3.0,56,0.00,,,0.00,Wunderground v.1.15,2013-02-17 07:24:00,
2013-02-17 02:27:00,18.2,4.7,29.79,South,176,1.0,3.0,55,0.00,,,0.00,Wunderground v.1.15,2013-02-17 07:27:00,
2013-02-17 02:29:00,18.1,5.4,29.79,South,176,0.0,4.0,57,0.00,,,0.00,Wunderground v.1.15,2013-02-17 07:29:00,
2013-02-17 02:32:00,18.1,4.6,29.78,South,176,1.0,4.0,55,0.00,,,0.00,Wunderground v.1.15,2013-02-17 07:32:00,
2013-02-17 02:34:00,18.0,4.5,29.78,South,176,2.0,4.0,55,0.00,,,0.00,Wunderground v.1.15,2013-02-17 07:34:00,
2013-02-17 02:37:00,18.0,5.3,29.77,South,176,2.0,4.0,57,0.00,,,0.00,Wunderground v.1.15,2013-02-17 07:37:00,
2013-02-17 02:40:00,17.9,4.8,29.77,South,176,2.0,5.0,56,0.00,,,0.00,Wunderground v.1.15,2013-02-17 07:40:00,
2013-02-17 02:42:00,17.9,4.4,29.77,South,176,1.0,4.0,55,0.00,,,0.00,Wunderground v.1.15,2013-02-17 07:42:00,
2013-02-17 02:43:00,17.9,4.4,29.77,South,176,0.0,4.0,55,0.00,,,0.00,Wunderground v.1.15,2013-02-17 07:43:00,
2013-02-17 02:45:00,17.8,4.3,29.76,South,176,3.0,4.0,55,0.00,,,0.00,Wunderground v.1.15,2013-02-17 07:45:00,
2013-02-17 02:47:00,17.8,4.3,29.77,South,176,2.0,8.0,55,0.00,,,0.00,Wunderground v.1.15,2013-02-17 07:47:00,
2013-02-17 02:48:00,17.8,4.3,29.77,South,176,1.0,8.0,55,0.00,,,0.00,Wunderground v.1.15,2013-02-17 07:48:00,
2013-02-17 02:50:00,17.7,4.2,29.77,South,176,3.0,8.0,55,0.00,,,0.00,Wunderground v.1.15,2013-02-17 07:50:00,
2013-02-17 02:52:00,17.7,5.0,29.77,South,176,1.0,3.0,57,0.00,,,0.00,Wunderground v.1.15,2013-02-17 07:52:00,
2013-02-17 02:53:00,17.7,5.0,29.77,South,176,1.0,3.0,57,0.00,,,0.00,Wunderground v.1.15,2013-02-17 07:53:00,
2013-02-17 02:55:00,17.7,5.0,29.77,South,176,1.0,3.0,57,0.00,,,0.00,Wunderground v.1.15,2013-02-17 07:55:00,
2013-02-17 02:58:00,17.6,4.9,29.76,South,176,2.0,4.0,57,0.00,,,0.00,Wunderground v.1.15,2013-02-17 07:58:00,
2013-02-17 03:00:00,17.6,4.5,29.76,South,176,1.0,2.0,56,0.00,,,0.00,Wunderground v.1.15,2013-02-17 08:00:00,
2013-02-17 03:03:00,17.5,4.1,29.76,South,176,1.0,2.0,55,0.00,,,0.00,Wunderground v.1.15,2013-02-17 08:03:00,
2013-02-17 03:05:00,17.5,4.5,29.76,South,176,1.0,3.0,56,0.00,,,0.00,Wunderground v.1.15,2013-02-17 08:05:00,
2013-02-17 03:08:00,17.5,4.8,29.76,South,176,2.0,4.0,57,0.00,,,0.00,Wunderground v.1.15,2013-02-17 08:08:00,
2013-02-17 03:10:00,17.5,4.8,29.76,South,176,2.0,3.0,57,0.00,,,0.00,Wunderground v.1.15,2013-02-17 08:10:00,
2013-02-17 03:13:00,17.4,4.4,29.76,South,176,2.0,3.0,56,0.00,,,0.00,Wunderground v.1.15,2013-02-17 08:13:00,
2013-02-17 03:14:00,17.4,4.4,29.76,South,176,1.0,3.0,56,0.00,,,0.00,Wunderground v.1.15,2013-02-17 08:14:00,
2013-02-17 03:15:00,17.4,4.7,29.76,South,176,1.0,4.0,57,0.00,,,0.00,Wunderground v.1.15,2013-02-17 08:15:00,
2013-02-17 03:18:00,17.3,4.7,29.76,South,176,2.0,4.0,57,0.00,,,0.00,Wunderground v.1.15,2013-02-17 08:18:00,
2013-02-17 03:19:00,17.3,4.7,29.76,South,176,2.0,4.0,57,0.00,,,0.00,Wunderground v.1.15,2013-02-17 08:19:00,
2013-02-17 03:20:00,17.3,4.7,29.76,South,176,2.0,3.0,57,0.00,,,0.00,Wunderground v.1.15,2013-02-17 08:20:00,
2013-02-17 03:24:00,17.3,4.7,29.76,South,176,2.0,3.0,57,0.00,,,0.00,Wunderground v.1.15,2013-02-17 08:24:00,
2013-02-17 03:26:00,17.3,4.7,29.75,South,176,3.0,5.0,57,0.00,,,0.00,Wunderground v.1.15,2013-02-17 08:26:00,
2013-02-17 03:29:00,17.2,4.6,29.75,South,176,0.0,5.0,57,0.00,,,0.00,Wunderground v.1.15,2013-02-17 08:29:00,
2013-02-17 03:31:00,17.2,4.9,29.75,South,176,1.0,2.0,58,0.00,,,0.00,Wunderground v.1.15,2013-02-17 08:31:00,
2013-02-17 03:34:00,17.1,4.5,29.75,South,176,3.0,5.0,57,0.00,,,0.00,Wunderground v.1.15,2013-02-17 08:34:00,
2013-02-17 03:36:00,17.1,4.5,29.75,South,176,1.0,5.0,57,0.00,,,0.00,Wunderground v.1.15,2013-02-17 08:36:00,
2013-02-17 03:39:00,17.1,4.5,29.75,South,176,2.0,5.0,57,0.00,,,0.00,Wunderground v.1.15,2013-02-17 08:39:00,
2013-02-17 03:41:00,17.1,4.5,29.75,South,176,3.0,6.0,57,0.00,,,0.00,Wunderground v.1.15,2013-02-17 08:41:00,
2013-02-17 03:44:00,17.0,4.4,29.74,South,176,0.0,6.0,57,0.00,,,0.00,Wunderground v.1.15,2013-02-17 08:44:00,
2013-02-17 03:46:00,17.0,4.4,29.74,South,176,1.0,6.0,57,0.00,,,0.00,Wunderground v.1.15,2013-02-17 08:46:00,
2013-02-17 03:49:00,16.9,4.3,29.73,South,176,1.0,6.0,57,0.00,,,0.00,Wunderground v.1.15,2013-02-17 08:49:00,
2013-02-17 03:51:00,16.9,3.9,29.73,South,176,2.0,2.0,56,0.00,,,0.00,Wunderground v.1.15,2013-02-17 08:51:00,
2013-02-17 03:54:00,16.8,3.8,29.73,South,176,2.0,5.0,56,0.00,,,0.00,Wunderground v.1.15,2013-02-17 08:54:00,
2013-02-17 03:56:00,16.8,3.8,29.72,South,176,1.0,5.0,56,0.00,,,0.00,Wunderground v.1.15,2013-02-17 08:56:00,
2013-02-17 03:59:00,16.7,4.1,29.72,South,176,4.0,5.0,57,0.00,,,0.00,Wunderground v.1.15,2013-02-17 08:59:00,
2013-02-17 04:00:00,16.7,4.5,29.72,South,176,3.0,3.0,58,0.00,,,0.00,Wunderground v.1.15,2013-02-17 09:00:00,
2013-02-17 04:02:00,16.7,4.1,29.72,South,176,3.0,3.0,57,0.00,,,0.00,Wunderground v.1.15,2013-02-17 09:02:00,
2013-02-17 04:05:00,16.6,3.6,29.72,South,176,3.0,5.0,56,0.00,,,0.00,Wunderground v.1.15,2013-02-17 09:05:00,
2013-02-17 04:07:00,16.6,3.6,29.73,South,176,0.0,5.0,56,0.00,,,0.00,Wunderground v.1.15,2013-02-17 09:07:00,
2013-02-17 04:10:00,16.5,3.9,29.73,South,176,2.0,3.0,57,0.00,,,0.00,Wunderground v.1.15,2013-02-17 09:10:00,
2013-02-17 04:11:00,16.6,3.6,29.73,South,176,3.0,3.0,56,0.00,,,0.00,Wunderground v.1.15,2013-02-17 09:11:00,
2013-02-17 04:12:00,16.5,3.5,29.73,South,176,1.0,3.0,56,0.00,,,0.00,Wunderground v.1.15,2013-02-17 09:12:00,
2013-02-17 04:15:00,16.5,3.5,29.74,South,176,0.0,3.0,56,0.00,,,0.00,Wunderground v.1.15,2013-02-17 09:15:00,
2013-02-17 04:16:00,16.5,3.5,29.74,South,176,0.0,3.0,56,0.00,,,0.00,Wunderground v.1.15,2013-02-17 09:16:00,
2013-02-17 04:18:00,16.4,3.4,29.74,South,176,0.0,3.0,56,0.00,,,0.00,Wunderground v.1.15,2013-02-17 09:18:00,
2013-02-17 04:20:00,16.4,3.4,29.74,South,176,0.0,1.0,56,0.00,,,0.00,Wunderground v.1.15,2013-02-17 09:20:00,
2013-02-17 04:21:00,16.4,4.6,29.74,South,176,0.0,3.0,59,0.00,,,0.00,Wunderground v.1.15,2013-02-17 09:21:00,
2013-02-17 04:23:00,16.4,4.6,29.74,South,176,2.0,3.0,59,0.00,,,0.00,Wunderground v.1.15,2013-02-17 09:23:00,
2013-02-17 04:25:00,16.5,4.7,29.74,South,176,2.0,4.0,59,0.00,,,0.00,Wunderground v.1.15,2013-02-17 09:25:00,
2013-02-17 04:26:00,16.4,4.2,29.73,South,176,0.0,4.0,58,0.00,,,0.00,Wunderground v.1.15,2013-02-17 09:26:00,
2013-02-17 04:28:00,16.4,3.8,29.73,South,176,0.0,4.0,57,0.00,,,0.00,Wunderground v.1.15,2013-02-17 09:28:00,
2013-02-17 04:30:00,16.4,4.2,29.73,South,176,0.0,1.0,58,0.00,,,0.00,Wunderground v.1.15,2013-02-17 09:30:00,
2013-02-17 04:31:00,16.4,4.2,29.73,South,176,1.0,2.0,58,0.00,,,0.00,Wunderground v.1.15,2013-02-17 09:31:00,
2013-02-17 04:33:00,16.3,4.1,29.73,South,176,1.0,2.0,58,0.00,,,0.00,Wunderground v.1.15,2013-02-17 09:33:00,
2013-02-17 04:35:00,16.3,4.5,29.73,South,176,1.0,5.0,59,0.00,,,0.00,Wunderground v.1.15,2013-02-17 09:35:00,
2013-02-17 04:36:00,16.3,4.5,29.73,South,176,0.0,5.0,59,0.00,,,0.00,Wunderground v.1.15,2013-02-17 09:36:00,
2013-02-17 04:38:00,16.3,4.5,29.73,South,176,3.0,5.0,59,0.00,,,0.00,Wunderground v.1.15,2013-02-17 09:38:00,
2013-02-17 04:40:00,16.2,4.7,29.73,South,176,2.0,2.0,60,0.00,,,0.00,Wunderground v.1.15,2013-02-17 09:40:00,
2013-02-17 04:41:00,16.2,4.7,29.73,South,176,0.0,2.0,60,0.00,,,0.00,Wunderground v.1.15,2013-02-17 09:41:00,
2013-02-17 04:43:00,16.1,4.3,29.73,South,176,0.0,2.0,59,0.00,,,0.00,Wunderground v.1.15,2013-02-17 09:43:00,
2013-02-17 04:45:00,16.1,4.3,29.72,South,176,1.0,2.0,59,0.00,,,0.00,Wunderground v.1.15,2013-02-17 09:45:00,
2013-02-17 04:46:00,16.1,4.6,29.72,South,176,2.0,3.0,60,0.00,,,0.00,Wunderground v.1.15,2013-02-17 09:46:00,
2013-02-17 04:48:00,16.0,4.2,29.72,South,176,0.0,3.0,59,0.00,,,0.00,Wunderground v.1.15,2013-02-17 09:48:00,
2013-02-17 04:50:00,16.0,4.2,29.72,South,176,1.0,2.0,59,0.00,,,0.00,Wunderground v.1.15,2013-02-17 09:50:00,
2013-02-17 04:51:00,16.0,4.2,29.71,South,176,1.0,3.0,59,0.00,,,0.00,Wunderground v.1.15,2013-02-17 09:51:00,
2013-02-17 04:53:00,15.9,3.7,29.71,South,176,2.0,5.0,58,0.00,,,0.00,Wunderground v.1.15,2013-02-17 09:53:00,
2013-02-17 04:55:00,15.9,4.1,29.71,South,176,1.0,5.0,59,0.00,,,0.00,Wunderground v.1.15,2013-02-17 09:55:00,
2013-02-17 04:57:00,15.9,3.7,29.71,South,176,2.0,5.0,58,0.00,,,0.00,Wunderground v.1.15,2013-02-17 09:57:00,
2013-02-17 04:58:00,15.8,3.6,29.71,South,176,1.0,6.0,58,0.00,,,0.00,Wunderground v.1.15,2013-02-17 09:58:00,
2013-02-17 05:01:00,15.8,4.0,29.71,South,176,0.0,2.0,59,0.00,,,0.00,Wunderground v.1.15,2013-02-17 10:01:00,
2013-02-17 05:02:00,15.8,4.0,29.71,South,176,0.0,2.0,59,0.00,,,0.00,Wunderground v.1.15,2013-02-17 10:02:00,
2013-02-17 05:03:00,15.7,3.5,29.71,South,176,2.0,2.0,58,0.00,,,0.00,Wunderground v.1.15,2013-02-17 10:03:00,
2013-02-17 05:06:00,15.7,3.9,29.71,South,176,2.0,2.0,59,0.00,,,0.00,Wunderground v.1.15,2013-02-17 10:06:00,
2013-02-17 05:07:00,15.7,3.9,29.71,South,176,2.0,2.0,59,0.00,,,0.00,Wunderground v.1.15,2013-02-17 10:07:00,
2013-02-17 05:08:00,15.6,3.4,29.71,South,176,2.0,2.0,58,0.00,,,0.00,Wunderground v.1.15,2013-02-17 10:08:00,
2013-02-17 05:12:00,15.7,4.6,29.71,South,176,1.0,3.0,61,0.00,,,0.00,Wunderground v.1.15,2013-02-17 10:12:00,
2013-02-17 05:13:00,15.6,4.2,29.71,South,176,0.0,3.0,60,0.00,,,0.00,Wunderground v.1.15,2013-02-17 10:13:00,
2013-02-17 05:17:00,15.6,4.2,29.72,South,176,2.0,3.0,60,0.00,,,0.00,Wunderground v.1.15,2013-02-17 10:17:00,
2013-02-17 05:18:00,15.6,4.5,29.72,South,176,0.0,3.0,61,0.00,,,0.00,Wunderground v.1.15,2013-02-17 10:18:00,
2013-02-17 05:22:00,15.5,4.1,29.72,South,176,2.0,3.0,60,0.00,,,0.00,Wunderground v.1.15,2013-02-17 10:22:00,
2013-02-17 05:23:00,15.5,3.7,29.72,South,176,1.0,5.0,59,0.00,,,0.00,Wunderground v.1.15,2013-02-17 10:23:00,
2013-02-17 05:27:00,15.4,4.0,29.72,South,176,2.0,6.0,60,0.00,,,0.00,Wunderground v.1.15,2013-02-17 10:27:00,
2013-02-17 05:28:00,15.4,3.6,29.72,South,176,1.0,6.0,59,0.00,,,0.00,Wunderground v.1.15,2013-02-17 10:28:00,
2013-02-17 05:32:00,15.3,3.9,29.71,South,176,0.0,8.0,60,0.00,,,0.00,Wunderground v.1.15,2013-02-17 10:32:00,
2013-02-17 05:33:00,15.3,3.9,29.71,South,176,2.0,8.0,60,0.00,,,0.00,Wunderground v.1.15,2013-02-17 10:33:00,
2013-02-17 05:37:00,15.2,3.8,29.71,South,176,1.0,8.0,60,0.00,,,0.00,Wunderground v.1.15,2013-02-17 10:37:00,
2013-02-17 05:38:00,15.2,3.8,29.71,South,176,2.0,8.0,60,0.00,,,0.00,Wunderground v.1.15,2013-02-17 10:38:00,
2013-02-17 05:43:00,15.1,3.7,29.71,South,176,3.0,12.0,60,0.00,,,0.00,Wunderground v.1.15,2013-02-17 10:43:00,
2013-02-17 05:44:00,15.1,4.1,29.71,South,176,1.0,12.0,61,0.00,,,0.00,Wunderground v.1.15,2013-02-17 10:44:00,
2013-02-17 05:48:00,15.0,3.6,29.70,South,176,2.0,12.0,60,0.00,,,0.00,Wunderground v.1.15,2013-02-17 10:48:00,
2013-02-17 05:49:00,15.0,3.6,29.70,South,176,0.0,12.0,60,0.00,,,0.00,Wunderground v.1.15,2013-02-17 10:49:00,
2013-02-17 05:53:00,14.9,3.5,29.70,South,176,1.0,5.0,60,0.00,,,0.00,Wunderground v.1.15,2013-02-17 10:53:00,
2013-02-17 05:54:00,14.9,3.5,29.69,South,176,1.0,5.0,60,0.00,,,0.00,Wunderground v.1.15,2013-02-17 10:54:00,
2013-02-17 05:58:00,14.8,3.8,29.68,South,176,0.0,5.0,61,0.00,,,0.00,Wunderground v.1.15,2013-02-17 10:58:00,
2013-02-17 05:59:00,14.7,3.7,29.68,South,176,1.0,5.0,61,0.00,,,0.00,Wunderground v.1.15,2013-02-17 10:59:00,
2013-02-17 06:03:00,14.6,4.3,29.67,South,176,3.0,5.0,63,0.00,,,0.00,Wunderground v.1.15,2013-02-17 11:03:00,
2013-02-17 06:04:00,14.6,3.9,29.67,South,176,3.0,5.0,62,0.00,,,0.00,Wunderground v.1.15,2013-02-17 11:04:00,
2013-02-17 06:08:00,14.5,3.8,29.68,South,176,4.0,5.0,62,0.00,,,0.00,Wunderground v.1.15,2013-02-17 11:08:00,
2013-02-17 06:09:00,14.5,4.2,29.69,South,176,1.0,5.0,63,0.00,,,0.00,Wunderground v.1.15,2013-02-17 11:09:00,
2013-02-17 06:13:00,14.4,4.1,29.68,South,176,1.0,6.0,63,0.00,,,0.00,Wunderground v.1.15,2013-02-17 11:13:00,
2013-02-17 06:14:00,14.4,3.7,29.68,South,176,1.0,6.0,62,0.00,,,0.00,Wunderground v.1.15,2013-02-17 11:14:00,
2013-02-17 06:18:00,14.3,4.0,29.68,South,176,5.0,8.0,63,0.00,,,0.00,Wunderground v.1.15,2013-02-17 11:18:00,
2013-02-17 06:19:00,14.2,4.2,29.68,South,176,1.0,8.0,64,0.00,,,0.00,Wunderground v.1.15,2013-02-17 11:19:00,
2013-02-17 06:23:00,14.2,4.6,29.68,South,176,2.0,4.0,65,0.00,,,0.00,Wunderground v.1.15,2013-02-17 11:23:00,
2013-02-17 06:24:00,14.1,4.5,29.68,South,176,1.0,4.0,65,0.00,,,0.00,Wunderground v.1.15,2013-02-17 11:24:00,
2013-02-17 06:28:00,14.0,3.7,29.68,South,176,0.0,4.0,63,0.00,,,0.00,Wunderground v.1.15,2013-02-17 11:28:00,
2013-02-17 06:29:00,14.0,3.7,29.68,South,176,0.0,4.0,63,0.00,,,0.00,Wunderground v.1.15,2013-02-17 11:29:00,
2013-02-17 06:33:00,14.0,4.4,29.67,South,176,2.0,9.0,65,0.00,,,0.00,Wunderground v.1.15,2013-02-17 11:33:00,
2013-02-17 06:34:00,14.0,4.4,29.67,South,176,2.0,9.0,65,0.00,,,0.00,Wunderground v.1.15,2013-02-17 11:34:00,
2013-02-17 06:35:00,13.9,4.3,29.67,South,176,2.0,9.0,65,0.00,,,0.00,Wunderground v.1.15,2013-02-17 11:35:00,
2013-02-17 06:38:00,13.9,4.3,29.67,South,176,3.0,9.0,65,0.00,,,0.00,Wunderground v.1.15,2013-02-17 11:38:00,
2013-02-17 06:39:00,13.9,4.3,29.67,South,176,1.0,9.0,65,0.00,,,0.00,Wunderground v.1.15,2013-02-17 11:39:00,
2013-02-17 06:40:00,13.9,4.3,29.67,South,176,3.0,3.0,65,0.00,,,0.00,Wunderground v.1.15,2013-02-17 11:40:00,
2013-02-17 06:43:00,13.8,3.9,29.66,South,176,2.0,7.0,64,0.00,,,0.00,Wunderground v.1.15,2013-02-17 11:43:00,
2013-02-17 06:44:00,13.9,4.0,29.66,South,176,3.0,7.0,64,0.00,,,0.00,Wunderground v.1.15,2013-02-17 11:44:00,
2013-02-17 06:45:00,13.9,4.3,29.66,South,176,10.0,10.0,65,0.00,,,0.00,Wunderground v.1.15,2013-02-17 11:45:00,
2013-02-17 06:48:00,13.9,4.6,29.66,South,176,2.0,10.0,66,0.00,,,0.00,Wunderground v.1.15,2013-02-17 11:48:00,
2013-02-17 06:49:00,13.8,4.2,29.65,South,176,2.0,10.0,65,0.00,,,0.00,Wunderground v.1.15,2013-02-17 11:49:00,
2013-02-17 06:50:00,13.8,4.5,29.66,South,176,4.0,5.0,66,0.00,,,0.00,Wunderground v.1.15,2013-02-17 11:50:00,
2013-02-17 06:54:00,13.7,4.4,29.65,South,176,3.0,5.0,66,0.00,,,0.00,Wunderground v.1.15,2013-02-17 11:54:00,
2013-02-17 06:55:00,13.7,4.4,29.65,South,176,3.0,6.0,66,0.00,,,0.00,Wunderground v.1.15,2013-02-17 11:55:00,
2013-02-17 06:59:00,13.6,4.3,29.64,South,176,2.0,6.0,66,0.00,,,0.00,Wunderground v.1.15,2013-02-17 11:59:00,
2013-02-17 07:00:00,13.6,4.3,29.65,South,176,1.0,2.0,66,0.00,,,0.00,Wunderground v.1.15,2013-02-17 12:00:00,
2013-02-17 07:04:00,13.6,4.3,29.64,South,176,3.0,9.0,66,0.00,,,0.00,Wunderground v.1.15,2013-02-17 12:04:00,
2013-02-17 07:05:00,13.6,4.7,29.64,South,176,1.0,9.0,67,0.00,,,0.00,Wunderground v.1.15,2013-02-17 12:05:00,
2013-02-17 07:09:00,13.5,4.6,29.64,South,176,3.0,9.0,67,0.00,,,0.00,Wunderground v.1.15,2013-02-17 12:09:00,
2013-02-17 07:10:00,13.5,4.6,29.63,South,176,2.0,4.0,67,0.00,,,0.00,Wunderground v.1.15,2013-02-17 12:10:00,
2013-02-17 07:14:00,13.5,4.9,29.63,South,176,1.0,4.0,68,0.00,,,0.00,Wunderground v.1.15,2013-02-17 12:14:00,
2013-02-17 07:15:00,13.4,4.5,29.63,South,176,2.0,6.0,67,0.00,,,0.00,Wunderground v.1.15,2013-02-17 12:15:00,
2013-02-17 07:16:00,13.4,4.8,29.63,South,176,2.0,6.0,68,0.00,,,0.00,Wunderground v.1.15,2013-02-17 12:16:00,
2013-02-17 07:19:00,13.4,4.8,29.63,South,176,3.0,6.0,68,0.00,,,0.00,Wunderground v.1.15,2013-02-17 12:19:00,
2013-02-17 07:20:00,13.4,5.1,29.63,South,176,3.0,5.0,69,0.00,,,0.00,Wunderground v.1.15,2013-02-17 12:20:00,
2013-02-17 07:21:00,13.4,5.1,29.63,South,176,1.0,5.0,69,0.00,,,0.00,Wunderground v.1.15,2013-02-17 12:21:00,
2013-02-17 07:24:00,13.3,4.7,29.63,South,176,1.0,5.0,68,0.00,,,0.00,Wunderground v.1.15,2013-02-17 12:24:00,
2013-02-17 07:25:00,13.3,4.7,29.63,South,176,2.0,15.0,68,0.00,,,0.00,Wunderground v.1.15,2013-02-17 12:25:00,
2013-02-17 07:26:00,13.2,4.6,29.63,South,176,2.0,15.0,68,0.00,,,0.00,Wunderground v.1.15,2013-02-17 12:26:00,
2013-02-17 07:29:00,13.2,5.2,29.63,South,176,1.0,15.0,70,0.00,,,0.00,Wunderground v.1.15,2013-02-17 12:29:00,
2013-02-17 07:30:00,13.2,5.2,29.63,South,176,0.0,2.0,70,0.00,,,0.00,Wunderground v.1.15,2013-02-17 12:30:00,
2013-02-17 07:31:00,13.2,5.2,29.64,South,176,1.0,2.0,70,0.00,,,0.00,Wunderground v.1.15,2013-02-17 12:31:00,
2013-02-17 07:34:00,13.2,4.9,29.63,South,176,3.0,4.0,69,0.00,,,0.00,Wunderground v.1.15,2013-02-17 12:34:00,
2013-02-17 07:35:00,13.1,4.8,29.64,South,176,1.0,4.0,69,0.00,,,0.00,Wunderground v.1.15,2013-02-17 12:35:00,
2013-02-17 07:36:00,13.1,4.8,29.64,South,176,1.0,4.0,69,0.00,,,0.00,Wunderground v.1.15,2013-02-17 12:36:00,
2013-02-17 07:39:00,13.1,5.1,29.64,South,176,1.0,4.0,70,0.00,,,0.00,Wunderground v.1.15,2013-02-17 12:39:00,
2013-02-17 07:41:00,13.1,5.1,29.64,South,176,0.0,4.0,70,0.00,,,0.00,Wunderground v.1.15,2013-02-17 12:41:00,
2013-02-17 07:44:00,13.0,5.0,29.63,South,176,2.0,8.0,70,0.00,,,0.00,Wunderground v.1.15,2013-02-17 12:44:00,
2013-02-17 07:46:00,13.0,5.0,29.63,South,176,0.0,8.0,70,0.00,,,0.00,Wunderground v.1.15,2013-02-17 12:46:00,
2013-02-17 07:49:00,13.0,4.7,29.63,South,176,2.0,8.0,69,0.00,,,0.00,Wunderground v.1.15,2013-02-17 12:49:00,
2013-02-17 07:51:00,13.0,5.0,29.63,South,176,2.0,3.0,70,0.00,,,0.00,Wunderground v.1.15,2013-02-17 12:51:00,
2013-02-17 07:52:00,13.0,5.0,29.63,South,176,4.0,7.0,70,0.00,,,0.00,Wunderground v.1.15,2013-02-17 12:52:00,
2013-02-17 07:54:00,13.0,5.0,29.63,South,176,1.0,7.0,70,0.00,,,0.00,Wunderground v.1.15,2013-02-17 12:54:00,
2013-02-17 07:56:00,12.9,5.0,29.63,South,176,3.0,7.0,70,0.00,,,0.00,Wunderground v.1.15,2013-02-17 12:56:00,
2013-02-17 07:57:00,13.0,5.0,29.63,South,176,0.0,7.0,70,0.00,,,0.00,Wunderground v.1.15,2013-02-17 12:57:00,
2013-02-17 07:59:00,13.0,5.0,29.63,South,176,0.0,7.0,70,0.00,,,0.00,Wunderground v.1.15,2013-02-17 12:59:00,
2013-02-17 08:02:00,13.0,5.0,29.63,South,176,1.0,2.0,70,0.00,,,0.00,Wunderground v.1.15,2013-02-17 13:02:00,
2013-02-17 08:04:00,13.0,5.0,29.63,South,176,2.0,4.0,70,0.00,,,0.00,Wunderground v.1.15,2013-02-17 13:04:00,
2013-02-17 08:07:00,13.0,5.0,29.63,South,176,3.0,7.0,70,0.00,,,0.00,Wunderground v.1.15,2013-02-17 13:07:00,
2013-02-17 08:09:00,13.0,5.4,29.63,South,176,2.0,7.0,71,0.00,,,0.00,Wunderground v.1.15,2013-02-17 13:09:00,
2013-02-17 08:12:00,13.0,5.0,29.63,South,176,2.0,9.0,70,0.00,,,0.00,Wunderground v.1.15,2013-02-17 13:12:00,
2013-02-17 08:15:00,13.0,5.4,29.63,South,176,1.0,9.0,71,0.00,,,0.00,Wunderground v.1.15,2013-02-17 13:15:00,
2013-02-17 08:17:00,13.0,5.0,29.62,South,176,0.0,12.0,70,0.00,,,0.00,Wunderground v.1.15,2013-02-17 13:17:00,
2013-02-17 08:18:00,13.0,5.0,29.63,South,176,1.0,12.0,70,0.00,,,0.00,Wunderground v.1.15,2013-02-17 13:18:00,
2013-02-17 08:20:00,13.0,5.0,29.62,South,176,1.0,2.0,70,0.00,,,0.00,Wunderground v.1.15,2013-02-17 13:20:00,
2013-02-17 08:22:00,13.0,5.0,29.62,South,176,0.0,4.0,70,0.00,,,0.00,Wunderground v.1.15,2013-02-17 13:22:00,
2013-02-17 08:23:00,13.0,5.0,29.62,South,176,0.0,4.0,70,0.00,,,0.00,Wunderground v.1.15,2013-02-17 13:23:00,
2013-02-17 08:25:00,13.0,5.4,29.62,South,176,4.0,4.0,71,0.00,,,0.00,Wunderground v.1.15,2013-02-17 13:25:00,
2013-02-17 08:27:00,13.0,5.4,29.62,South,176,1.0,4.0,71,0.00,,,0.00,Wunderground v.1.15,2013-02-17 13:27:00,
2013-02-17 08:28:00,13.0,5.4,29.62,South,176,2.0,4.0,71,0.00,,,0.00,Wunderground v.1.15,2013-02-17 13:28:00,
2013-02-17 08:30:00,13.1,5.1,29.62,South,176,2.0,2.0,70,0.00,,,0.00,Wunderground v.1.15,2013-02-17 13:30:00,
2013-02-17 08:32:00,13.1,5.5,29.62,South,176,1.0,5.0,71,0.00,,,0.00,Wunderground v.1.15,2013-02-17 13:32:00,
2013-02-17 08:33:00,13.1,5.5,29.61,South,176,4.0,5.0,71,0.00,,,0.00,Wunderground v.1.15,2013-02-17 13:33:00,
2013-02-17 08:35:00,13.1,5.8,29.61,South,176,3.0,5.0,72,0.00,,,0.00,Wunderground v.1.15,2013-02-17 13:35:00,
2013-02-17 08:37:00,13.1,5.5,29.61,South,176,3.0,5.0,71,0.00,,,0.00,Wunderground v.1.15,2013-02-17 13:37:00,
2013-02-17 08:38:00,13.2,5.6,29.61,South,176,2.0,5.0,71,0.00,,,0.00,Wunderground v.1.15,2013-02-17 13:38:00,
2013-02-17 08:40:00,13.2,5.6,29.61,South,176,2.0,3.0,71,0.00,,,0.00,Wunderground v.1.15,2013-02-17 13:40:00,
2013-02-17 08:42:00,13.2,5.6,29.61,South,176,2.0,6.0,71,0.00,,,0.00,Wunderground v.1.15,2013-02-17 13:42:00,
2013-02-17 08:43:00,13.2,5.6,29.61,South,176,1.0,6.0,71,0.00,,,0.00,Wunderground v.1.15,2013-02-17 13:43:00,
2013-02-17 08:44:00,13.2,5.6,29.61,South,176,1.0,6.0,71,0.00,,,0.00,Wunderground v.1.15,2013-02-17 13:44:00,
2013-02-17 08:45:00,13.2,5.6,29.60,South,176,1.0,6.0,71,0.00,,,0.00,Wunderground v.1.15,2013-02-17 13:45:00,
2013-02-17 08:47:00,13.2,5.6,29.60,South,176,6.0,6.0,71,0.00,,,0.00,Wunderground v.1.15,2013-02-17 13:47:00,
2013-02-17 08:48:00,13.2,5.6,29.61,South,176,1.0,6.0,71,0.00,,,0.00,Wunderground v.1.15,2013-02-17 13:48:00,
2013-02-17 08:49:00,13.2,5.9,29.61,South,176,1.0,6.0,72,0.00,,,0.00,Wunderground v.1.15,2013-02-17 13:49:00,
2013-02-17 08:50:00,13.2,5.6,29.61,South,176,3.0,5.0,71,0.00,,,0.00,Wunderground v.1.15,2013-02-17 13:50:00,
2013-02-17 08:52:00,13.2,5.6,29.60,South,176,3.0,5.0,71,0.00,,,0.00,Wunderground v.1.15,2013-02-17 13:52:00,
2013-02-17 08:53:00,13.2,5.6,29.60,South,176,2.0,5.0,71,0.00,,,0.00,Wunderground v.1.15,2013-02-17 13:53:00,
2013-02-17 08:54:00,13.2,5.6,29.60,South,176,1.0,5.0,71,0.00,,,0.00,Wunderground v.1.15,2013-02-17 13:54:00,
2013-02-17 08:55:00,13.2,5.6,29.60,South,176,0.0,5.0,71,0.00,,,0.00,Wunderground v.1.15,2013-02-17 13:55:00,
2013-02-17 08:58:00,13.2,5.6,29.60,South,176,2.0,5.0,71,0.00,,,0.00,Wunderground v.1.15,2013-02-17 13:58:00,
2013-02-17 08:59:00,13.2,5.6,29.60,South,176,1.0,9.0,71,0.00,,,0.00,Wunderground v.1.15,2013-02-17 13:59:00,
2013-02-17 09:01:00,13.2,5.6,29.59,South,176,5.0,6.0,71,0.00,,,0.00,Wunderground v.1.15,2013-02-17 14:01:00,
2013-02-17 09:03:00,13.2,5.6,29.60,South,176,2.0,6.0,71,0.00,,,0.00,Wunderground v.1.15,2013-02-17 14:03:00,
2013-02-17 09:04:00,13.2,5.6,29.59,South,176,3.0,10.0,71,0.00,,,0.00,Wunderground v.1.15,2013-02-17 14:04:00,
2013-02-17 09:07:00,13.2,5.9,29.59,South,176,0.0,10.0,72,0.00,,,0.00,Wunderground v.1.15,2013-02-17 14:07:00,
2013-02-17 09:08:00,13.2,5.6,29.59,South,176,1.0,10.0,71,0.00,,,0.00,Wunderground v.1.15,2013-02-17 14:08:00,
2013-02-17 09:09:00,13.2,5.9,29.59,South,176,2.0,10.0,72,0.00,,,0.00,Wunderground v.1.15,2013-02-17 14:09:00,
2013-02-17 09:12:00,13.2,5.6,29.59,South,176,1.0,8.0,71,0.00,,,0.00,Wunderground v.1.15,2013-02-17 14:12:00,
2013-02-17 09:13:00,13.2,5.9,29.59,South,176,1.0,8.0,72,0.00,,,0.00,Wunderground v.1.15,2013-02-17 14:13:00,
2013-02-17 09:14:00,13.2,5.9,29.59,South,176,1.0,8.0,72,0.00,,,0.00,Wunderground v.1.15,2013-02-17 14:14:00,
2013-02-17 09:15:00,13.2,5.6,29.59,South,176,1.0,8.0,71,0.00,,,0.00,Wunderground v.1.15,2013-02-17 14:15:00,
2013-02-17 09:17:00,13.3,5.6,29.59,South,176,2.0,8.0,71,0.00,,,0.00,Wunderground v.1.15,2013-02-17 14:17:00,
2013-02-17 09:18:00,13.3,5.6,29.59,South,176,4.0,8.0,71,0.00,,,0.00,Wunderground v.1.15,2013-02-17 14:18:00,
2013-02-17 09:19:00,13.3,5.6,29.59,South,176,2.0,8.0,71,0.00,,,0.00,Wunderground v.1.15,2013-02-17 14:19:00,
2013-02-17 09:20:00,13.3,6.0,29.58,South,176,3.0,4.0,72,0.00,,,0.00,Wunderground v.1.15,2013-02-17 14:20:00,
2013-02-17 09:22:00,13.3,6.0,29.59,South,176,3.0,4.0,72,0.00,,,0.00,Wunderground v.1.15,2013-02-17 14:22:00,
2013-02-17 09:24:00,13.3,6.0,29.59,South,176,1.0,4.0,72,0.00,,,0.00,Wunderground v.1.15,2013-02-17 14:24:00,
2013-02-17 09:25:00,13.3,5.6,29.58,South,176,1.0,4.0,71,0.00,,,0.00,Wunderground v.1.15,2013-02-17 14:25:00,
2013-02-17 09:27:00,13.3,6.0,29.58,South,176,1.0,4.0,72,0.00,,,0.00,Wunderground v.1.15,2013-02-17 14:27:00,
2013-02-17 09:29:00,13.4,6.1,29.58,South,176,2.0,4.0,72,0.00,,,0.00,Wunderground v.1.15,2013-02-17 14:29:00,
2013-02-17 09:30:00,13.4,6.1,29.58,South,176,2.0,3.0,72,0.00,,,0.00,Wunderground v.1.15,2013-02-17 14:30:00,
2013-02-17 09:32:00,13.4,5.7,29.58,South,176,1.0,5.0,71,0.00,,,0.00,Wunderground v.1.15,2013-02-17 14:32:00,
2013-02-17 09:34:00,13.4,5.7,29.57,South,176,6.0,6.0,71,0.00,,,0.00,Wunderground v.1.15,2013-02-17 14:34:00,
2013-02-17 09:36:00,13.4,5.7,29.58,South,176,1.0,7.0,71,0.00,,,0.00,Wunderground v.1.15,2013-02-17 14:36:00,
2013-02-17 09:37:00,13.4,5.7,29.58,South,176,1.0,7.0,71,0.00,,,0.00,Wunderground v.1.15,2013-02-17 14:37:00,
2013-02-17 09:39:00,13.5,5.8,29.58,South,176,2.0,7.0,71,0.00,,,0.00,Wunderground v.1.15,2013-02-17 14:39:00,
2013-02-17 09:41:00,13.5,6.1,29.57,South,176,2.0,8.0,72,0.00,,,0.00,Wunderground v.1.15,2013-02-17 14:41:00,
2013-02-17 09:42:00,13.6,6.2,29.58,South,176,5.0,8.0,72,0.00,,,0.00,Wunderground v.1.15,2013-02-17 14:42:00,
2013-02-17 09:44:00,13.6,5.9,29.58,South,176,1.0,8.0,71,0.00,,,0.00,Wunderground v.1.15,2013-02-17 14:44:00,
2013-02-17 09:46:00,13.6,6.2,29.58,South,176,3.0,8.0,72,0.00,,,0.00,Wunderground v.1.15,2013-02-17 14:46:00,
2013-02-17 09:47:00,13.6,5.9,29.57,South,176,5.0,8.0,71,0.00,,,0.00,Wunderground v.1.15,2013-02-17 14:47:00,
2013-02-17 09:49:00,13.6,5.9,29.57,South,176,1.0,8.0,71,0.00,,,0.00,Wunderground v.1.15,2013-02-17 14:49:00,
2013-02-17 09:50:00,13.6,5.6,29.57,South,176,1.0,2.0,70,0.00,,,0.00,Wunderground v.1.15,2013-02-17 14:50:00,
2013-02-17 09:51:00,13.6,5.6,29.57,South,176,3.0,3.0,70,0.00,,,0.00,Wunderground v.1.15,2013-02-17 14:51:00,
2013-02-17 09:53:00,13.7,6.3,29.56,South,176,0.0,9.0,72,0.00,,,0.00,Wunderground v.1.15,2013-02-17 14:53:00,
2013-02-17 09:54:00,13.7,6.3,29.57,South,176,1.0,12.0,72,0.00,,,0.00,Wunderground v.1.15,2013-02-17 14:54:00,
2013-02-17 09:55:00,13.7,6.0,29.57,South,176,1.0,12.0,71,0.00,,,0.00,Wunderground v.1.15,2013-02-17 14:55:00,
2013-02-17 09:56:00,13.7,6.0,29.56,South,176,2.0,12.0,71,0.00,,,0.00,Wunderground v.1.15,2013-02-17 14:56:00,
2013-02-17 09:58:00,13.7,6.0,29.57,South,176,3.0,12.0,71,0.00,,,0.00,Wunderground v.1.15,2013-02-17 14:58:00,
2013-02-17 09:59:00,13.8,6.1,29.56,South,176,7.0,12.0,71,0.00,,,0.00,Wunderground v.1.15,2013-02-17 14:59:00,
2013-02-17 10:02:00,13.7,6.0,29.56,South,176,2.0,8.0,71,0.00,,,0.00,Wunderground v.1.15,2013-02-17 15:02:00,
2013-02-17 10:03:00,13.8,6.1,29.56,South,176,2.0,8.0,71,0.00,,,0.00,Wunderground v.1.15,2013-02-17 15:03:00,
2013-02-17 10:04:00,13.8,6.1,29.56,South,176,1.0,8.0,71,0.00,,,0.00,Wunderground v.1.15,2013-02-17 15:04:00,
2013-02-17 10:07:00,13.9,6.2,29.56,South,176,4.0,8.0,71,0.00,,,0.00,Wunderground v.1.15,2013-02-17 15:07:00,
2013-02-17 10:08:00,13.9,6.2,29.56,South,176,3.0,8.0,71,0.00,,,0.00,Wunderground v.1.15,2013-02-17 15:08:00,
2013-02-17 10:09:00,14.0,6.3,29.55,South,176,4.0,8.0,71,0.00,,,0.00,Wunderground v.1.15,2013-02-17 15:09:00,
2013-02-17 10:12:00,13.9,5.9,29.55,South,176,5.0,8.0,70,0.00,,,0.00,Wunderground v.1.15,2013-02-17 15:12:00,
2013-02-17 10:13:00,13.9,5.9,29.56,South,176,2.0,8.0,70,0.00,,,0.00,Wunderground v.1.15,2013-02-17 15:13:00,
2013-02-17 10:14:00,13.9,6.2,29.55,South,176,4.0,8.0,71,0.00,,,0.00,Wunderground v.1.15,2013-02-17 15:14:00,
2013-02-17 10:17:00,13.9,6.2,29.55,South,175,1.0,8.0,71,0.00,,,0.00,Wunderground v.1.15,2013-02-17 15:17:00,
2013-02-17 10:19:00,13.9,6.2,29.55,South,176,2.0,10.0,71,0.00,,,0.00,Wunderground v.1.15,2013-02-17 15:19:00,
2013-02-17 10:20:00,13.9,6.2,29.55,South,176,6.0,7.0,71,0.00,,,0.00,Wunderground v.1.15,2013-02-17 15:20:00,
2013-02-17 10:22:00,13.9,6.2,29.55,South,176,3.0,10.0,71,0.00,,,0.00,Wunderground v.1.15,2013-02-17 15:22:00,
2013-02-17 10:23:00,14.0,6.3,29.55,South,176,3.0,10.0,71,0.00,,,0.00,Wunderground v.1.15,2013-02-17 15:23:00,
2013-02-17 10:24:00,13.9,6.2,29.55,South,176,2.0,10.0,71,0.00,,,0.00,Wunderground v.1.15,2013-02-17 15:24:00,
2013-02-17 10:25:00,13.9,6.2,29.55,South,176,2.0,10.0,71,0.00,,,0.00,Wunderground v.1.15,2013-02-17 15:25:00,
2013-02-17 10:27:00,13.9,6.2,29.55,South,176,3.0,10.0,71,0.00,,,0.00,Wunderground v.1.15,2013-02-17 15:27:00,
2013-02-17 10:28:00,13.9,6.2,29.55,South,176,8.0,10.0,71,0.00,,,0.00,Wunderground v.1.15,2013-02-17 15:28:00,
2013-02-17 10:29:00,13.9,6.2,29.55,South,176,4.0,10.0,71,0.00,,,0.00,Wunderground v.1.15,2013-02-17 15:29:00,
2013-02-17 10:30:00,13.9,5.9,29.54,South,176,4.0,7.0,70,0.00,,,0.00,Wunderground v.1.15,2013-02-17 15:30:00,
2013-02-17 10:32:00,13.9,5.9,29.55,South,176,2.0,7.0,70,0.00,,,0.00,Wunderground v.1.15,2013-02-17 15:32:00,
2013-02-17 10:33:00,13.9,5.9,29.55,South,176,3.0,7.0,70,0.00,,,0.00,Wunderground v.1.15,2013-02-17 15:33:00,
2013-02-17 10:34:00,13.9,5.9,29.54,South,176,1.0,7.0,70,0.00,,,0.00,Wunderground v.1.15,2013-02-17 15:34:00,
2013-02-17 10:35:00,13.9,5.9,29.54,South,176,8.0,8.0,70,0.00,,,0.00,Wunderground v.1.15,2013-02-17 15:35:00,
2013-02-17 10:37:00,13.9,5.9,29.54,South,176,2.0,10.0,70,0.00,,,0.00,Wunderground v.1.15,2013-02-17 15:37:00,
2013-02-17 10:38:00,13.9,5.9,29.54,South,176,4.0,10.0,70,0.00,,,0.00,Wunderground v.1.15,2013-02-17 15:38:00,
2013-02-17 10:39:00,13.9,5.9,29.54,South,176,3.0,10.0,70,0.00,,,0.00,Wunderground v.1.15,2013-02-17 15:39:00,
2013-02-17 10:41:00,13.9,5.9,29.54,South,176,3.0,6.0,70,0.00,,,0.00,Wunderground v.1.15,2013-02-17 15:41:00,
2013-02-17 10:42:00,14.0,6.0,29.55,South,176,1.0,7.0,70,0.00,,,0.00,Wunderground v.1.15,2013-02-17 15:42:00,
2013-02-17 10:43:00,14.0,6.0,29.55,South,176,3.0,9.0,70,0.00,,,0.00,Wunderground v.1.15,2013-02-17 15:43:00,
2013-02-17 10:44:00,14.0,6.0,29.54,South,176,8.0,9.0,70,0.00,,,0.00,Wunderground v.1.15,2013-02-17 15:44:00,
2013-02-17 10:46:00,14.0,6.0,29.54,South,176,3.0,11.0,70,0.00,,,0.00,Wunderground v.1.15,2013-02-17 15:46:00,
2013-02-17 10:48:00,14.1,6.1,29.54,South,176,2.0,11.0,70,0.00,,,0.00,Wunderground v.1.15,2013-02-17 15:48:00,
2013-02-17 10:49:00,14.2,6.2,29.54,South,176,5.0,11.0,70,0.00,,,0.00,Wunderground v.1.15,2013-02-17 15:49:00,
2013-02-17 10:51:00,14.2,5.9,29.54,South,176,2.0,5.0,69,0.00,,,0.00,Wunderground v.1.15,2013-02-17 15:51:00,
2013-02-17 10:53:00,14.3,6.3,29.54,South,176,4.0,6.0,70,0.00,,,0.00,Wunderground v.1.15,2013-02-17 15:53:00,
2013-02-17 10:54:00,14.3,6.3,29.54,South,176,1.0,6.0,70,0.00,,,0.00,Wunderground v.1.15,2013-02-17 15:54:00,
2013-02-17 10:56:00,14.4,5.8,29.54,South,176,2.0,6.0,68,0.00,,,0.00,Wunderground v.1.15,2013-02-17 15:56:00,
2013-02-17 10:58:00,14.4,5.8,29.54,South,176,4.0,10.0,68,0.00,,,0.00,Wunderground v.1.15,2013-02-17 15:58:00,
2013-02-17 10:59:00,14.4,5.8,29.53,South,176,1.0,15.0,68,0.00,,,0.00,Wunderground v.1.15,2013-02-17 15:59:00,
2013-02-17 11:01:00,14.3,5.7,29.54,South,176,2.0,3.0,68,0.00,,,0.00,Wunderground v.1.15,2013-02-17 16:01:00,
2013-02-17 11:03:00,14.5,6.2,29.54,South,176,0.0,9.0,69,0.00,,,0.00,Wunderground v.1.15,2013-02-17 16:03:00,
2013-02-17 11:04:00,14.5,5.9,29.54,South,176,2.0,9.0,68,0.00,,,0.00,Wunderground v.1.15,2013-02-17 16:04:00,
2013-02-17 11:05:00,14.5,5.9,29.54,South,176,3.0,9.0,68,0.00,,,0.00,Wunderground v.1.15,2013-02-17 16:05:00,
2013-02-17 11:06:00,14.5,5.9,29.54,South,176,3.0,9.0,68,0.00,,,0.00,Wunderground v.1.15,2013-02-17 16:06:00,
2013-02-17 11:08:00,14.7,6.0,29.54,South,176,1.0,9.0,68,0.00,,,0.00,Wunderground v.1.15,2013-02-17 16:08:00,
2013-02-17 11:09:00,14.7,6.0,29.55,South,176,1.0,9.0,68,0.00,,,0.00,Wunderground v.1.15,2013-02-17 16:09:00,
2013-02-17 11:10:00,14.7,6.0,29.54,South,176,2.0,2.0,68,0.00,,,0.00,Wunderground v.1.15,2013-02-17 16:10:00,
2013-02-17 11:12:00,14.8,5.8,29.54,South,176,3.0,5.0,67,0.00,,,0.00,Wunderground v.1.15,2013-02-17 16:12:00,
2013-02-17 11:14:00,15.0,6.0,29.54,South,176,3.0,10.0,67,0.00,,,0.00,Wunderground v.1.15,2013-02-17 16:14:00,
2013-02-17 11:15:00,15.0,5.7,29.55,South,176,2.0,10.0,66,0.00,,,0.00,Wunderground v.1.15,2013-02-17 16:15:00,
2013-02-17 11:17:00,15.1,5.8,29.54,South,176,2.0,10.0,66,0.00,,,0.00,Wunderground v.1.15,2013-02-17 16:17:00,
2013-02-17 11:19:00,15.2,5.9,29.54,South,176,4.0,10.0,66,0.00,,,0.00,Wunderground v.1.15,2013-02-17 16:19:00,
2013-02-17 11:20:00,15.2,5.5,29.54,South,176,2.0,3.0,65,0.00,,,0.00,Wunderground v.1.15,2013-02-17 16:20:00,
2013-02-17 11:22:00,15.4,6.4,29.55,South,176,2.0,4.0,67,0.00,,,0.00,Wunderground v.1.15,2013-02-17 16:22:00,
2013-02-17 11:24:00,15.5,6.2,29.54,South,176,2.0,6.0,66,0.00,,,0.00,Wunderground v.1.15,2013-02-17 16:24:00,
2013-02-17 11:25:00,15.6,5.9,29.54,South,176,3.0,8.0,65,0.00,,,0.00,Wunderground v.1.15,2013-02-17 16:25:00,
2013-02-17 11:27:00,15.6,5.9,29.54,South,176,3.0,8.0,65,0.00,,,0.00,Wunderground v.1.15,2013-02-17 16:27:00,
2013-02-17 11:29:00,15.7,6.0,29.54,South,176,4.0,8.0,65,0.00,,,0.00,Wunderground v.1.15,2013-02-17 16:29:00,
2013-02-17 11:30:00,15.6,5.9,29.54,South,176,5.0,8.0,65,0.00,,,0.00,Wunderground v.1.15,2013-02-17 16:30:00,
2013-02-17 11:32:00,15.6,5.9,29.54,South,176,2.0,10.0,65,0.00,,,0.00,Wunderground v.1.15,2013-02-17 16:32:00,
2013-02-17 11:35:00,15.7,6.0,29.54,South,176,2.0,10.0,65,0.00,,,0.00,Wunderground v.1.15,2013-02-17 16:35:00,
2013-02-17 11:37:00,15.8,5.8,29.54,South,176,5.0,10.0,64,0.00,,,0.00,Wunderground v.1.15,2013-02-17 16:37:00,
2013-02-17 11:40:00,15.8,5.8,29.54,South,176,3.0,4.0,64,0.00,,,0.00,Wunderground v.1.15,2013-02-17 16:40:00,
2013-02-17 11:42:00,15.8,5.8,29.54,South,176,6.0,6.0,64,0.00,,,0.00,Wunderground v.1.15,2013-02-17 16:42:00,
2013-02-17 11:45:00,16.0,6.0,29.54,South,176,3.0,6.0,64,0.00,,,0.00,Wunderground v.1.15,2013-02-17 16:45:00,
2013-02-17 11:47:00,16.0,6.0,29.54,South,176,4.0,6.0,64,0.00,,,0.00,Wunderground v.1.15,2013-02-17 16:47:00,
2013-02-17 11:50:00,16.0,5.6,29.55,South,176,4.0,7.0,63,0.00,,,0.00,Wunderground v.1.15,2013-02-17 16:50:00,
2013-02-17 11:52:00,16.0,5.6,29.55,South,176,0.0,7.0,63,0.00,,,0.00,Wunderground v.1.15,2013-02-17 16:52:00,
2013-02-17 11:55:00,16.1,5.7,29.55,South,176,3.0,7.0,63,0.00,,,0.00,Wunderground v.1.15,2013-02-17 16:55:00,
2013-02-17 11:56:00,16.2,5.8,29.54,South,176,4.0,7.0,63,0.00,,,0.00,Wunderground v.1.15,2013-02-17 16:56:00,
2013-02-17 11:58:00,16.2,5.5,29.54,South,176,4.0,7.0,62,0.00,,,0.00,Wunderground v.1.15,2013-02-17 16:58:00,
2013-02-17 12:01:00,16.1,5.4,29.54,South,176,2.0,4.0,62,0.00,,,0.00,Wunderground v.1.15,2013-02-17 17:01:00,
2013-02-17 12:03:00,16.1,5.4,29.54,South,176,3.0,5.0,62,0.00,,,0.00,Wunderground v.1.15,2013-02-17 17:03:00,
2013-02-17 12:06:00,16.1,5.0,29.54,South,176,3.0,9.0,61,0.00,,,0.00,Wunderground v.1.15,2013-02-17 17:06:00,
2013-02-17 12:08:00,16.1,5.4,29.55,South,176,4.0,9.0,62,0.00,,,0.00,Wunderground v.1.15,2013-02-17 17:08:00,
2013-02-17 12:11:00,16.1,5.4,29.54,South,176,3.0,9.0,62,0.00,,,0.00,Wunderground v.1.15,2013-02-17 17:11:00,
2013-02-17 12:14:00,16.1,5.4,29.55,South,176,6.0,9.0,62,0.00,,,0.00,Wunderground v.1.15,2013-02-17 17:14:00,
2013-02-17 12:17:00,16.0,4.9,29.54,South,176,2.0,9.0,61,0.00,,,0.00,Wunderground v.1.15,2013-02-17 17:17:00,
2013-02-17 12:19:00,16.0,4.9,29.55,South,176,1.0,9.0,61,0.00,,,0.00,Wunderground v.1.15,2013-02-17 17:19:00,
2013-02-17 12:22:00,16.2,5.1,29.54,South,176,3.0,5.0,61,0.00,,,0.00,Wunderground v.1.15,2013-02-17 17:22:00,
2013-02-17 12:24:00,16.2,5.1,29.54,South,176,1.0,5.0,61,0.00,,,0.00,Wunderground v.1.15,2013-02-17 17:24:00,
2013-02-17 12:27:00,16.3,5.2,29.54,South,176,3.0,8.0,61,0.00,,,0.00,Wunderground v.1.15,2013-02-17 17:27:00,
2013-02-17 12:29:00,16.3,4.8,29.54,South,176,4.0,8.0,60,0.00,,,0.00,Wunderground v.1.15,2013-02-17 17:29:00,
2013-02-17 12:32:00,16.3,4.8,29.54,South,176,1.0,6.0,60,0.00,,,0.00,Wunderground v.1.15,2013-02-17 17:32:00,
2013-02-17 12:34:00,16.3,4.5,29.54,South,176,3.0,6.0,59,0.00,,,0.00,Wunderground v.1.15,2013-02-17 17:34:00,
2013-02-17 12:37:00,16.3,4.5,29.54,South,176,1.0,9.0,59,0.00,,,0.00,Wunderground v.1.15,2013-02-17 17:37:00,
2013-02-17 12:38:00,16.3,4.5,29.54,South,176,1.0,9.0,59,0.00,,,0.00,Wunderground v.1.15,2013-02-17 17:38:00,
2013-02-17 12:39:00,16.3,4.5,29.55,South,176,3.0,10.0,59,0.00,,,0.00,Wunderground v.1.15,2013-02-17 17:39:00,
2013-02-17 12:42:00,16.2,4.0,29.54,South,176,2.0,7.0,58,0.00,,,0.00,Wunderground v.1.15,2013-02-17 17:42:00,
2013-02-17 12:43:00,16.2,4.0,29.55,South,176,6.0,7.0,58,0.00,,,0.00,Wunderground v.1.15,2013-02-17 17:43:00,
2013-02-17 12:44:00,16.2,4.4,29.54,South,176,4.0,7.0,59,0.00,,,0.00,Wunderground v.1.15,2013-02-17 17:44:00,
2013-02-17 12:47:00,16.2,4.0,29.54,South,176,2.0,9.0,58,0.00,,,0.00,Wunderground v.1.15,2013-02-17 17:47:00,
2013-02-17 12:48:00,16.2,4.4,29.54,South,176,5.0,9.0,59,0.00,,,0.00,Wunderground v.1.15,2013-02-17 17:48:00,
2013-02-17 12:50:00,16.3,4.5,29.54,South,176,3.0,9.0,59,0.00,,,0.00,Wunderground v.1.15,2013-02-17 17:50:00,
2013-02-17 12:52:00,16.3,4.1,29.54,South,176,3.0,7.0,58,0.00,,,0.00,Wunderground v.1.15,2013-02-17 17:52:00,
2013-02-17 12:53:00,16.3,4.1,29.54,South,176,3.0,7.0,58,0.00,,,0.00,Wunderground v.1.15,2013-02-17 17:53:00,
2013-02-17 12:55:00,16.3,3.7,29.54,South,176,2.0,7.0,57,0.00,,,0.00,Wunderground v.1.15,2013-02-17 17:55:00,
2013-02-17 12:57:00,16.4,4.2,29.54,South,176,4.0,7.0,58,0.00,,,0.00,Wunderground v.1.15,2013-02-17 17:57:00,
2013-02-17 12:58:00,16.4,4.2,29.54,South,176,1.0,7.0,58,0.00,,,0.00,Wunderground v.1.15,2013-02-17 17:58:00,
2013-02-17 13:00:00,16.4,4.2,29.54,South,176,3.0,5.0,58,0.00,,,0.00,Wunderground v.1.15,2013-02-17 18:00:00,
2013-02-17 13:02:00,16.4,4.2,29.54,South,176,2.0,5.0,58,0.00,,,0.00,Wunderground v.1.15,2013-02-17 18:02:00,
2013-02-17 13:03:00,16.4,4.2,29.54,South,176,3.0,5.0,58,0.00,,,0.00,Wunderground v.1.15,2013-02-17 18:03:00,
2013-02-17 13:05:00,16.4,4.6,29.54,South,176,4.0,6.0,59,0.00,,,0.00,Wunderground v.1.15,2013-02-17 18:05:00,
2013-02-17 13:07:00,16.4,4.2,29.55,South,176,2.0,6.0,58,0.00,,,0.00,Wunderground v.1.15,2013-02-17 18:07:00,
2013-02-17 13:08:00,16.4,4.2,29.54,South,176,3.0,6.0,58,0.00,,,0.00,Wunderground v.1.15,2013-02-17 18:08:00,
2013-02-17 13:10:00,16.4,4.6,29.54,South,176,1.0,3.0,59,0.00,,,0.00,Wunderground v.1.15,2013-02-17 18:10:00,
2013-02-17 13:12:00,16.5,4.7,29.54,South,176,4.0,9.0,59,0.00,,,0.00,Wunderground v.1.15,2013-02-17 18:12:00,
2013-02-17 13:13:00,16.5,4.7,29.55,South,176,2.0,9.0,59,0.00,,,0.00,Wunderground v.1.15,2013-02-17 18:13:00,
2013-02-17 13:15:00,16.4,4.2,29.55,South,176,5.0,9.0,58,0.00,,,0.00,Wunderground v.1.15,2013-02-17 18:15:00,
2013-02-17 13:17:00,16.4,4.6,29.54,South,176,6.0,9.0,59,0.00,,,0.00,Wunderground v.1.15,2013-02-17 18:17:00,
2013-02-17 13:18:00,16.4,4.6,29.54,South,176,2.0,9.0,59,0.00,,,0.00,Wunderground v.1.15,2013-02-17 18:18:00,
2013-02-17 13:21:00,16.3,4.5,29.55,South,176,2.0,5.0,59,0.00,,,0.00,Wunderground v.1.15,2013-02-17 18:21:00,
2013-02-17 13:23:00,16.3,4.5,29.54,South,176,3.0,6.0,59,0.00,,,0.00,Wunderground v.1.15,2013-02-17 18:23:00,
2013-02-17 13:26:00,16.5,4.7,29.55,South,176,2.0,6.0,59,0.00,,,0.00,Wunderground v.1.15,2013-02-17 18:26:00,
2013-02-17 13:28:00,16.5,4.7,29.55,South,176,3.0,8.0,59,0.00,,,0.00,Wunderground v.1.15,2013-02-17 18:28:00,
2013-02-17 13:31:00,16.5,4.3,29.55,South,176,1.0,8.0,58,0.00,,,0.00,Wunderground v.1.15,2013-02-17 18:31:00,
2013-02-17 13:33:00,16.6,4.4,29.55,South,176,3.0,8.0,58,0.00,,,0.00,Wunderground v.1.15,2013-02-17 18:33:00,
2013-02-17 13:36:00,16.5,3.5,29.55,South,176,5.0,9.0,56,0.00,,,0.00,Wunderground v.1.15,2013-02-17 18:36:00,
2013-02-17 13:38:00,16.4,3.4,29.55,South,176,2.0,9.0,56,0.00,,,0.00,Wunderground v.1.15,2013-02-17 18:38:00,
2013-02-17 13:39:00,16.3,3.7,29.55,South,176,2.0,9.0,57,0.00,,,0.00,Wunderground v.1.15,2013-02-17 18:39:00,
2013-02-17 13:41:00,16.4,4.2,29.55,South,176,4.0,6.0,58,0.00,,,0.00,Wunderground v.1.15,2013-02-17 18:41:00,
2013-02-17 13:43:00,16.4,3.8,29.55,South,176,11.0,11.0,57,0.00,,,0.00,Wunderground v.1.15,2013-02-17 18:43:00,
2013-02-17 13:44:00,16.4,3.4,29.55,South,176,3.0,11.0,56,0.00,,,0.00,Wunderground v.1.15,2013-02-17 18:44:00,
2013-02-17 13:46:00,16.3,3.3,29.55,South,176,2.0,11.0,56,0.00,,,0.00,Wunderground v.1.15,2013-02-17 18:46:00,
2013-02-17 13:48:00,16.3,3.3,29.55,South,176,2.0,11.0,56,0.00,,,0.00,Wunderground v.1.15,2013-02-17 18:48:00,
2013-02-17 13:49:00,16.3,3.3,29.55,South,176,1.0,11.0,56,0.00,,,0.00,Wunderground v.1.15,2013-02-17 18:49:00,
2013-02-17 13:51:00,16.3,2.9,29.56,South,176,2.0,13.0,55,0.00,,,0.00,Wunderground v.1.15,2013-02-17 18:51:00,
2013-02-17 13:53:00,16.3,3.3,29.55,South,176,2.0,13.0,56,0.00,,,0.00,Wunderground v.1.15,2013-02-17 18:53:00,
2013-02-17 13:54:00,16.3,3.7,29.55,South,176,2.0,13.0,57,0.00,,,0.00,Wunderground v.1.15,2013-02-17 18:54:00,
2013-02-17 13:57:00,16.2,3.2,29.55,South,176,4.0,13.0,56,0.00,,,0.00,Wunderground v.1.15,2013-02-17 18:57:00,
2013-02-17 13:58:00,16.2,3.6,29.55,South,176,1.0,13.0,57,0.00,,,0.00,Wunderground v.1.15,2013-02-17 18:58:00,
2013-02-17 13:59:00,16.2,3.2,29.55,South,176,1.0,13.0,56,0.00,,,0.00,Wunderground v.1.15,2013-02-17 18:59:00,
2013-02-17 14:02:00,16.2,3.2,29.56,South,176,6.0,6.0,56,0.00,,,0.00,Wunderground v.1.15,2013-02-17 19:02:00,
2013-02-17 14:03:00,16.3,3.3,29.56,South,176,7.0,7.0,56,0.00,,,0.00,Wunderground v.1.15,2013-02-17 19:03:00,
2013-02-17 14:04:00,16.3,2.9,29.55,South,176,2.0,7.0,55,0.00,,,0.00,Wunderground v.1.15,2013-02-17 19:04:00,
2013-02-17 14:08:00,16.3,3.3,29.56,South,176,3.0,7.0,56,0.00,,,0.00,Wunderground v.1.15,2013-02-17 19:08:00,
2013-02-17 14:09:00,16.3,3.3,29.55,South,176,2.0,7.0,56,0.00,,,0.00,Wunderground v.1.15,2013-02-17 19:09:00,
2013-02-17 14:10:00,16.4,3.4,29.56,South,176,1.0,3.0,56,0.00,,,0.00,Wunderground v.1.15,2013-02-17 19:10:00,
2013-02-17 14:13:00,16.4,3.4,29.56,South,176,4.0,6.0,56,0.00,,,0.00,Wunderground v.1.15,2013-02-17 19:13:00,
2013-02-17 14:14:00,16.3,2.5,29.56,South,176,4.0,6.0,54,0.00,,,0.00,Wunderground v.1.15,2013-02-17 19:14:00,
2013-02-17 14:15:00,16.3,2.5,29.55,South,176,1.0,7.0,54,0.00,,,0.00,Wunderground v.1.15,2013-02-17 19:15:00,
2013-02-17 14:18:00,16.3,2.9,29.55,South,176,3.0,13.0,55,0.00,,,0.00,Wunderground v.1.15,2013-02-17 19:18:00,
2013-02-17 14:19:00,16.3,2.9,29.55,South,176,8.0,13.0,55,0.00,,,0.00,Wunderground v.1.15,2013-02-17 19:19:00,
2013-02-17 14:20:00,16.3,2.9,29.55,South,176,2.0,3.0,55,0.00,,,0.00,Wunderground v.1.15,2013-02-17 19:20:00,
2013-02-17 14:23:00,16.2,2.4,29.56,South,176,4.0,11.0,54,0.00,,,0.00,Wunderground v.1.15,2013-02-17 19:23:00,
2013-02-17 14:24:00,16.2,2.4,29.56,South,176,2.0,11.0,54,0.00,,,0.00,Wunderground v.1.15,2013-02-17 19:24:00,
2013-02-17 14:25:00,16.2,2.4,29.56,South,176,4.0,11.0,54,0.00,,,0.00,Wunderground v.1.15,2013-02-17 19:25:00,
2013-02-17 14:28:00,16.2,2.4,29.56,South,176,1.0,11.0,54,0.00,,,0.00,Wunderground v.1.15,2013-02-17 19:28:00,
2013-02-17 14:29:00,16.2,2.4,29.56,South,176,1.0,11.0,54,0.00,,,0.00,Wunderground v.1.15,2013-02-17 19:29:00,
2013-02-17 14:30:00,16.2,2.4,29.56,South,176,3.0,6.0,54,0.00,,,0.00,Wunderground v.1.15,2013-02-17 19:30:00,
2013-02-17 14:33:00,16.2,2.8,29.56,South,176,3.0,7.0,55,0.00,,,0.00,Wunderground v.1.15,2013-02-17 19:33:00,
2013-02-17 14:34:00,16.2,2.8,29.56,South,176,2.0,10.0,55,0.00,,,0.00,Wunderground v.1.15,2013-02-17 19:34:00,
2013-02-17 14:35:00,16.2,2.8,29.56,South,176,2.0,10.0,55,0.00,,,0.00,Wunderground v.1.15,2013-02-17 19:35:00,
2013-02-17 14:38:00,16.3,2.9,29.57,South,176,3.0,10.0,55,0.00,,,0.00,Wunderground v.1.15,2013-02-17 19:38:00,
2013-02-17 14:39:00,16.3,3.3,29.56,South,176,5.0,10.0,56,0.00,,,0.00,Wunderground v.1.15,2013-02-17 19:39:00,
2013-02-17 14:41:00,16.3,3.7,29.57,South,176,2.0,5.0,57,0.00,,,0.00,Wunderground v.1.15,2013-02-17 19:41:00,
2013-02-17 14:43:00,16.4,3.0,29.56,South,176,1.0,7.0,55,0.00,,,0.00,Wunderground v.1.15,2013-02-17 19:43:00,
2013-02-17 14:44:00,16.4,3.0,29.57,South,176,4.0,7.0,55,0.00,,,0.00,Wunderground v.1.15,2013-02-17 19:44:00,
2013-02-17 14:46:00,16.4,3.0,29.57,South,176,2.0,7.0,55,0.00,,,0.00,Wunderground v.1.15,2013-02-17 19:46:00,
2013-02-17 14:48:00,16.4,3.4,29.57,South,176,2.0,7.0,56,0.00,,,0.00,Wunderground v.1.15,2013-02-17 19:48:00,
2013-02-17 14:49:00,16.3,2.9,29.57,South,176,1.0,7.0,55,0.00,,,0.00,Wunderground v.1.15,2013-02-17 19:49:00,
2013-02-17 14:50:00,16.3,2.9,29.57,South,176,1.0,3.0,55,0.00,,,0.00,Wunderground v.1.15,2013-02-17 19:50:00,
2013-02-17 14:51:00,16.3,3.3,29.57,South,176,3.0,6.0,56,0.00,,,0.00,Wunderground v.1.15,2013-02-17 19:51:00,
2013-02-17 14:54:00,16.2,3.2,29.56,South,176,2.0,9.0,56,0.00,,,0.00,Wunderground v.1.15,2013-02-17 19:54:00,
2013-02-17 14:55:00,16.2,3.2,29.57,South,176,4.0,9.0,56,0.00,,,0.00,Wunderground v.1.15,2013-02-17 19:55:00,
2013-02-17 14:56:00,16.1,2.4,29.57,South,176,2.0,9.0,54,0.00,,,0.00,Wunderground v.1.15,2013-02-17 19:56:00,
2013-02-17 14:59:00,16.0,2.3,29.57,South,176,3.0,9.0,54,0.00,,,0.00,Wunderground v.1.15,2013-02-17 19:59:00,
2013-02-17 15:00:00,16.0,2.7,29.57,South,176,5.0,5.0,55,0.00,,,0.00,Wunderground v.1.15,2013-02-17 20:00:00,
2013-02-17 15:02:00,15.9,2.6,29.57,South,176,4.0,5.0,55,0.00,,,0.00,Wunderground v.1.15,2013-02-17 20:02:00,
2013-02-17 15:04:00,15.9,2.6,29.57,South,176,5.0,7.0,55,0.00,,,0.00,Wunderground v.1.15,2013-02-17 20:04:00,
2013-02-17 15:05:00,15.8,2.5,29.57,South,176,4.0,11.0,55,0.00,,,0.00,Wunderground v.1.15,2013-02-17 20:05:00,
2013-02-17 15:07:00,15.8,2.5,29.57,South,176,3.0,11.0,55,0.00,,,0.00,Wunderground v.1.15,2013-02-17 20:07:00,
2013-02-17 15:09:00,15.8,2.9,29.57,South,176,1.0,11.0,56,0.00,,,0.00,Wunderground v.1.15,2013-02-17 20:09:00,
2013-02-17 15:10:00,15.8,2.5,29.57,South,176,2.0,5.0,55,0.00,,,0.00,Wunderground v.1.15,2013-02-17 20:10:00,
2013-02-17 15:12:00,15.8,2.5,29.57,South,176,3.0,5.0,55,0.00,,,0.00,Wunderground v.1.15,2013-02-17 20:12:00,
2013-02-17 15:14:00,15.8,2.9,29.57,South,176,2.0,8.0,56,0.00,,,0.00,Wunderground v.1.15,2013-02-17 20:14:00,
2013-02-17 15:15:00,15.8,3.2,29.58,South,176,3.0,8.0,57,0.00,,,0.00,Wunderground v.1.15,2013-02-17 20:15:00,
2013-02-17 15:17:00,15.8,2.1,29.58,South,176,5.0,10.0,54,0.00,,,0.00,Wunderground v.1.15,2013-02-17 20:17:00,
2013-02-17 15:19:00,15.7,2.0,29.57,South,176,4.0,10.0,54,0.00,,,0.00,Wunderground v.1.15,2013-02-17 20:19:00,
2013-02-17 15:20:00,15.7,2.4,29.58,South,176,2.0,4.0,55,0.00,,,0.00,Wunderground v.1.15,2013-02-17 20:20:00,
2013-02-17 15:22:00,15.7,2.4,29.57,South,176,3.0,4.0,55,0.00,,,0.00,Wunderground v.1.15,2013-02-17 20:22:00,
2013-02-17 15:24:00,15.7,2.0,29.58,South,176,3.0,11.0,54,0.00,,,0.00,Wunderground v.1.15,2013-02-17 20:24:00,
2013-02-17 15:25:00,15.7,2.0,29.58,South,176,6.0,11.0,54,0.00,,,0.00,Wunderground v.1.15,2013-02-17 20:25:00,
2013-02-17 15:27:00,15.6,2.3,29.58,South,176,3.0,11.0,55,0.00,,,0.00,Wunderground v.1.15,2013-02-17 20:27:00,
2013-02-17 15:29:00,15.6,2.3,29.57,South,176,4.0,11.0,55,0.00,,,0.00,Wunderground v.1.15,2013-02-17 20:29:00,
2013-02-17 15:30:00,15.6,2.3,29.58,South,176,4.0,4.0,55,0.00,,,0.00,Wunderground v.1.15,2013-02-17 20:30:00,
2013-02-17 15:32:00,15.6,2.3,29.58,South,176,6.0,9.0,55,0.00,,,0.00,Wunderground v.1.15,2013-02-17 20:32:00,
2013-02-17 15:34:00,15.6,2.3,29.58,South,176,3.0,9.0,55,0.00,,,0.00,Wunderground v.1.15,2013-02-17 20:34:00,
2013-02-17 15:35:00,15.6,2.3,29.58,South,176,2.0,9.0,55,0.00,,,0.00,Wunderground v.1.15,2013-02-17 20:35:00,
2013-02-17 15:37:00,15.6,2.3,29.57,South,176,2.0,11.0,55,0.00,,,0.00,Wunderground v.1.15,2013-02-17 20:37:00,
2013-02-17 15:39:00,15.6,1.9,29.58,South,176,1.0,11.0,54,0.00,,,0.00,Wunderground v.1.15,2013-02-17 20:39:00,
2013-02-17 15:40:00,15.6,1.9,29.57,South,176,1.0,4.0,54,0.00,,,0.00,Wunderground v.1.15,2013-02-17 20:40:00,
2013-02-17 15:42:00,15.6,2.3,29.58,South,176,3.0,7.0,55,0.00,,,0.00,Wunderground v.1.15,2013-02-17 20:42:00,
2013-02-17 15:44:00,15.6,3.1,29.58,South,176,2.0,7.0,57,0.00,,,0.00,Wunderground v.1.15,2013-02-17 20:44:00,
2013-02-17 15:46:00,15.6,2.7,29.58,South,176,2.0,11.0,56,0.00,,,0.00,Wunderground v.1.15,2013-02-17 20:46:00,
2013-02-17 15:47:00,15.6,3.1,29.58,South,176,0.0,11.0,57,0.00,,,0.00,Wunderground v.1.15,2013-02-17 20:47:00,
2013-02-17 15:49:00,15.7,2.8,29.58,South,176,2.0,11.0,56,0.00,,,0.00,Wunderground v.1.15,2013-02-17 20:49:00,
2013-02-17 15:51:00,15.7,2.8,29.57,South,176,1.0,7.0,56,0.00,,,0.00,Wunderground v.1.15,2013-02-17 20:51:00,
2013-02-17 15:53:00,15.7,2.8,29.58,South,176,2.0,7.0,56,0.00,,,0.00,Wunderground v.1.15,2013-02-17 20:53:00,
2013-02-17 15:54:00,15.7,3.1,29.58,South,176,2.0,7.0,57,0.00,,,0.00,Wunderground v.1.15,2013-02-17 20:54:00,
2013-02-17 15:56:00,15.8,3.2,29.58,South,176,4.0,7.0,57,0.00,,,0.00,Wunderground v.1.15,2013-02-17 20:56:00,
2013-02-17 15:58:00,15.7,2.8,29.58,South,176,1.0,7.0,56,0.00,,,0.00,Wunderground v.1.15,2013-02-17 20:58:00,
2013-02-17 15:59:00,15.7,2.8,29.58,South,176,4.0,7.0,56,0.00,,,0.00,Wunderground v.1.15,2013-02-17 20:59:00,
2013-02-17 16:01:00,15.7,2.8,29.58,South,176,3.0,4.0,56,0.00,,,0.00,Wunderground v.1.15,2013-02-17 21:01:00,
2013-02-17 16:02:00,15.7,2.8,29.58,South,176,3.0,4.0,56,0.00,,,0.00,Wunderground v.1.15,2013-02-17 21:02:00,
2013-02-17 16:03:00,15.7,2.8,29.58,South,176,7.0,7.0,56,0.00,,,0.00,Wunderground v.1.15,2013-02-17 21:03:00,
2013-02-17 16:04:00,15.7,3.1,29.58,South,176,2.0,7.0,57,0.00,,,0.00,Wunderground v.1.15,2013-02-17 21:04:00,
2013-02-17 16:07:00,15.6,2.7,29.58,South,176,3.0,7.0,56,0.00,,,0.00,Wunderground v.1.15,2013-02-17 21:07:00,
2013-02-17 16:09:00,15.6,2.7,29.59,South,176,3.0,7.0,56,0.00,,,0.00,Wunderground v.1.15,2013-02-17 21:09:00,
2013-02-17 16:10:00,15.6,2.3,29.59,South,176,0.0,3.0,55,0.00,,,0.00,Wunderground v.1.15,2013-02-17 21:10:00,
2013-02-17 16:12:00,15.5,2.2,29.58,South,176,5.0,9.0,55,0.00,,,0.00,Wunderground v.1.15,2013-02-17 21:12:00,
2013-02-17 16:13:00,15.5,2.2,29.58,South,176,4.0,9.0,55,0.00,,,0.00,Wunderground v.1.15,2013-02-17 21:13:00,
2013-02-17 16:14:00,15.5,2.6,29.58,South,176,2.0,9.0,56,0.00,,,0.00,Wunderground v.1.15,2013-02-17 21:14:00,
2013-02-17 16:15:00,15.5,3.0,29.59,South,176,3.0,9.0,57,0.00,,,0.00,Wunderground v.1.15,2013-02-17 21:15:00,
2013-02-17 16:17:00,15.5,3.0,29.59,South,176,2.0,9.0,57,0.00,,,0.00,Wunderground v.1.15,2013-02-17 21:17:00,
2013-02-17 16:18:00,15.5,2.6,29.59,South,176,3.0,9.0,56,0.00,,,0.00,Wunderground v.1.15,2013-02-17 21:18:00,
2013-02-17 16:19:00,15.5,2.6,29.59,South,176,1.0,9.0,56,0.00,,,0.00,Wunderground v.1.15,2013-02-17 21:19:00,
2013-02-17 16:20:00,15.4,2.1,29.59,South,176,3.0,3.0,55,0.00,,,0.00,Wunderground v.1.15,2013-02-17 21:20:00,
2013-02-17 16:22:00,15.4,2.1,29.59,South,176,2.0,5.0,55,0.00,,,0.00,Wunderground v.1.15,2013-02-17 21:22:00,
2013-02-17 16:23:00,15.4,2.5,29.59,South,176,2.0,5.0,56,0.00,,,0.00,Wunderground v.1.15,2013-02-17 21:23:00,
2013-02-17 16:24:00,15.4,2.5,29.59,South,176,2.0,5.0,56,0.00,,,0.00,Wunderground v.1.15,2013-02-17 21:24:00,
2013-02-17 16:25:00,15.4,2.5,29.60,South,176,1.0,5.0,56,0.00,,,0.00,Wunderground v.1.15,2013-02-17 21:25:00,
2013-02-17 16:27:00,15.4,2.5,29.60,South,176,3.0,5.0,56,0.00,,,0.00,Wunderground v.1.15,2013-02-17 21:27:00,
2013-02-17 16:28:00,15.4,2.5,29.60,South,176,1.0,5.0,56,0.00,,,0.00,Wunderground v.1.15,2013-02-17 21:28:00,
2013-02-17 16:29:00,15.3,2.0,29.60,South,176,3.0,5.0,55,0.00,,,0.00,Wunderground v.1.15,2013-02-17 21:29:00,
2013-02-17 16:30:00,15.4,2.5,29.60,South,176,2.0,4.0,56,0.00,,,0.00,Wunderground v.1.15,2013-02-17 21:30:00,
2013-02-17 16:32:00,15.3,2.0,29.60,South,176,1.0,4.0,55,0.00,,,0.00,Wunderground v.1.15,2013-02-17 21:32:00,
2013-02-17 16:33:00,15.3,2.0,29.60,South,176,1.0,4.0,55,0.00,,,0.00,Wunderground v.1.15,2013-02-17 21:33:00,
2013-02-17 16:34:00,15.3,2.8,29.60,South,176,0.0,4.0,57,0.00,,,0.00,Wunderground v.1.15,2013-02-17 21:34:00,
2013-02-17 16:35:00,15.2,2.7,29.60,South,176,1.0,4.0,57,0.00,,,0.00,Wunderground v.1.15,2013-02-17 21:35:00,
2013-02-17 16:38:00,15.3,2.4,29.61,South,176,2.0,4.0,56,0.00,,,0.00,Wunderground v.1.15,2013-02-17 21:38:00,
2013-02-17 16:40:00,15.2,2.3,29.61,South,176,1.0,2.0,56,0.00,,,0.00,Wunderground v.1.15,2013-02-17 21:40:00,
2013-02-17 16:43:00,15.2,2.3,29.61,South,176,2.0,6.0,56,0.00,,,0.00,Wunderground v.1.15,2013-02-17 21:43:00,
2013-02-17 16:45:00,15.2,2.7,29.61,South,176,3.0,6.0,57,0.00,,,0.00,Wunderground v.1.15,2013-02-17 21:45:00,
2013-02-17 16:46:00,15.2,2.7,29.61,South,176,2.0,6.0,57,0.00,,,0.00,Wunderground v.1.15,2013-02-17 21:46:00,
2013-02-17 16:48:00,15.2,2.3,29.61,South,176,1.0,6.0,56,0.00,,,0.00,Wunderground v.1.15,2013-02-17 21:48:00,
2013-02-17 16:50:00,15.1,2.2,29.62,South,176,1.0,2.0,56,0.00,,,0.00,Wunderground v.1.15,2013-02-17 21:50:00,
2013-02-17 16:51:00,15.1,2.6,29.61,South,176,2.0,5.0,57,0.00,,,0.00,Wunderground v.1.15,2013-02-17 21:51:00,
2013-02-17 16:53:00,15.0,2.1,29.61,South,176,2.0,5.0,56,0.00,,,0.00,Wunderground v.1.15,2013-02-17 21:53:00,
2013-02-17 16:55:00,15.0,2.5,29.62,South,176,1.0,5.0,57,0.00,,,0.00,Wunderground v.1.15,2013-02-17 21:55:00,
2013-02-17 16:56:00,15.0,2.1,29.62,South,176,4.0,6.0,56,0.00,,,0.00,Wunderground v.1.15,2013-02-17 21:56:00,
2013-02-17 16:58:00,14.9,2.0,29.62,South,176,1.0,6.0,56,0.00,,,0.00,Wunderground v.1.15,2013-02-17 21:58:00,
2013-02-17 17:00:00,14.9,2.4,29.62,South,176,2.0,9.0,57,0.00,,,0.00,Wunderground v.1.15,2013-02-17 22:00:00,
2013-02-17 17:02:00,14.9,2.0,29.62,South,176,1.0,9.0,56,0.00,,,0.00,Wunderground v.1.15,2013-02-17 22:02:00,
2013-02-17 17:03:00,14.9,2.0,29.62,South,176,4.0,9.0,56,0.00,,,0.00,Wunderground v.1.15,2013-02-17 22:03:00,
2013-02-17 17:04:00,14.8,1.5,29.62,South,176,3.0,9.0,55,0.00,,,0.00,Wunderground v.1.15,2013-02-17 22:04:00,
2013-02-17 17:06:00,14.8,1.5,29.63,South,176,2.0,9.0,55,0.00,,,0.00,Wunderground v.1.15,2013-02-17 22:06:00,
2013-02-17 17:07:00,14.8,1.9,29.63,South,176,2.0,9.0,56,0.00,,,0.00,Wunderground v.1.15,2013-02-17 22:07:00,
2013-02-17 17:08:00,14.8,1.9,29.63,South,176,3.0,9.0,56,0.00,,,0.00,Wunderground v.1.15,2013-02-17 22:08:00,
2013-02-17 17:09:00,14.8,1.9,29.63,South,176,2.0,9.0,56,0.00,,,0.00,Wunderground v.1.15,2013-02-17 22:09:00,
2013-02-17 17:11:00,14.8,1.9,29.63,South,176,4.0,4.0,56,0.00,,,0.00,Wunderground v.1.15,2013-02-17 22:11:00,
2013-02-17 17:12:00,14.7,1.8,29.63,South,176,3.0,4.0,56,0.00,,,0.00,Wunderground v.1.15,2013-02-17 22:12:00,
2013-02-17 17:13:00,14.7,2.2,29.63,South,176,1.0,4.0,57,0.00,,,0.00,Wunderground v.1.15,2013-02-17 22:13:00,
2013-02-17 17:14:00,14.7,2.2,29.63,South,176,3.0,4.0,57,0.00,,,0.00,Wunderground v.1.15,2013-02-17 22:14:00,
2013-02-17 17:16:00,14.7,1.8,29.63,South,176,2.0,4.0,56,0.00,,,0.00,Wunderground v.1.15,2013-02-17 22:16:00,
2013-02-17 17:17:00,14.7,1.8,29.63,South,176,2.0,4.0,56,0.00,,,0.00,Wunderground v.1.15,2013-02-17 22:17:00,
2013-02-17 17:19:00,14.7,2.2,29.64,South,176,3.0,5.0,57,0.00,,,0.00,Wunderground v.1.15,2013-02-17 22:19:00,
2013-02-17 17:21:00,14.6,1.7,29.63,South,176,3.0,9.0,56,0.00,,,0.00,Wunderground v.1.15,2013-02-17 22:21:00,
2013-02-17 17:22:00,14.6,1.7,29.64,South,176,5.0,9.0,56,0.00,,,0.00,Wunderground v.1.15,2013-02-17 22:22:00,
2013-02-17 17:24:00,14.6,2.1,29.64,South,176,4.0,9.0,57,0.00,,,0.00,Wunderground v.1.15,2013-02-17 22:24:00,
2013-02-17 17:26:00,14.6,1.7,29.64,South,176,1.0,9.0,56,0.00,,,0.00,Wunderground v.1.15,2013-02-17 22:26:00,
2013-02-17 17:28:00,14.5,1.6,29.64,South,176,2.0,9.0,56,0.00,,,0.00,Wunderground v.1.15,2013-02-17 22:28:00,
2013-02-17 17:29:00,14.5,1.6,29.64,South,176,0.0,9.0,56,0.00,,,0.00,Wunderground v.1.15,2013-02-17 22:29:00,
2013-02-17 17:31:00,14.6,1.7,29.65,South,176,2.0,4.0,56,0.00,,,0.00,Wunderground v.1.15,2013-02-17 22:31:00,
2013-02-17 17:33:00,14.5,2.0,29.64,South,176,2.0,7.0,57,0.00,,,0.00,Wunderground v.1.15,2013-02-17 22:33:00,
2013-02-17 17:34:00,14.5,1.6,29.64,South,176,3.0,7.0,56,0.00,,,0.00,Wunderground v.1.15,2013-02-17 22:34:00,
2013-02-17 17:35:00,14.5,1.6,29.64,South,176,2.0,7.0,56,0.00,,,0.00,Wunderground v.1.15,2013-02-17 22:35:00,
2013-02-17 17:36:00,14.5,1.6,29.65,South,176,4.0,7.0,56,0.00,,,0.00,Wunderground v.1.15,2013-02-17 22:36:00,
2013-02-17 17:38:00,14.5,1.6,29.64,South,176,2.0,7.0,56,0.00,,,0.00,Wunderground v.1.15,2013-02-17 22:38:00,
2013-02-17 17:39:00,14.5,1.2,29.65,South,176,4.0,7.0,55,0.00,,,0.00,Wunderground v.1.15,2013-02-17 22:39:00,
2013-02-17 17:40:00,14.5,1.6,29.65,South,176,1.0,3.0,56,0.00,,,0.00,Wunderground v.1.15,2013-02-17 22:40:00,
2013-02-17 17:41:00,14.5,1.6,29.65,South,176,2.0,4.0,56,0.00,,,0.00,Wunderground v.1.15,2013-02-17 22:41:00,
2013-02-17 17:43:00,14.5,1.6,29.65,South,176,5.0,5.0,56,0.00,,,0.00,Wunderground v.1.15,2013-02-17 22:43:00,
2013-02-17 17:44:00,14.6,1.7,29.65,South,176,3.0,5.0,56,0.00,,,0.00,Wunderground v.1.15,2013-02-17 22:44:00,
2013-02-17 17:45:00,14.5,1.6,29.66,South,176,3.0,5.0,56,0.00,,,0.00,Wunderground v.1.15,2013-02-17 22:45:00,
2013-02-17 17:46:00,14.5,1.6,29.65,South,176,1.0,5.0,56,0.00,,,0.00,Wunderground v.1.15,2013-02-17 22:46:00,
2013-02-17 17:48:00,14.5,1.6,29.64,South,176,5.0,11.0,56,0.00,,,0.00,Wunderground v.1.15,2013-02-17 22:48:00,
2013-02-17 17:49:00,14.5,1.2,29.65,South,176,1.0,11.0,55,0.00,,,0.00,Wunderground v.1.15,2013-02-17 22:49:00,
2013-02-17 17:50:00,14.6,1.3,29.65,South,176,2.0,5.0,55,0.00,,,0.00,Wunderground v.1.15,2013-02-17 22:50:00,
2013-02-17 17:52:00,14.6,1.3,29.65,South,176,1.0,5.0,55,0.00,,,0.00,Wunderground v.1.15,2013-02-17 22:52:00,
2013-02-17 17:53:00,14.6,1.3,29.65,South,176,0.0,5.0,55,0.00,,,0.00,Wunderground v.1.15,2013-02-17 22:53:00,
2013-02-17 17:54:00,14.5,1.6,29.66,South,176,1.0,6.0,56,0.00,,,0.00,Wunderground v.1.15,2013-02-17 22:54:00,
2013-02-17 17:55:00,14.5,1.6,29.65,South,176,5.0,6.0,56,0.00,,,0.00,Wunderground v.1.15,2013-02-17 22:55:00,
2013-02-17 17:57:00,14.5,1.6,29.66,South,176,6.0,7.0,56,0.00,,,0.00,Wunderground v.1.15,2013-02-17 22:57:00,
2013-02-17 17:58:00,14.5,2.0,29.66,South,176,1.0,7.0,57,0.00,,,0.00,Wunderground v.1.15,2013-02-17 22:58:00,
2013-02-17 18:00:00,14.5,2.0,29.66,South,176,3.0,3.0,57,0.00,,,0.00,Wunderground v.1.15,2013-02-17 23:00:00,
2013-02-17 18:02:00,14.5,2.0,29.65,South,176,4.0,5.0,57,0.00,,,0.00,Wunderground v.1.15,2013-02-17 23:02:00,
2013-02-17 18:03:00,14.5,1.6,29.66,South,176,2.0,8.0,56,0.00,,,0.00,Wunderground v.1.15,2013-02-17 23:03:00,
2013-02-17 18:06:00,14.5,1.6,29.66,South,176,3.0,8.0,56,0.00,,,0.00,Wunderground v.1.15,2013-02-17 23:06:00,
2013-02-17 18:07:00,14.5,2.0,29.65,South,176,2.0,8.0,57,0.00,,,0.00,Wunderground v.1.15,2013-02-17 23:07:00,
2013-02-17 18:08:00,14.4,1.5,29.65,South,176,3.0,9.0,56,0.00,,,0.00,Wunderground v.1.15,2013-02-17 23:08:00,
2013-02-17 18:11:00,14.4,1.9,29.66,South,176,5.0,9.0,57,0.00,,,0.00,Wunderground v.1.15,2013-02-17 23:11:00,
2013-02-17 18:12:00,14.4,1.9,29.66,South,176,4.0,9.0,57,0.00,,,0.00,Wunderground v.1.15,2013-02-17 23:12:00,
2013-02-17 18:13:00,14.4,1.9,29.66,South,176,4.0,9.0,57,0.00,,,0.00,Wunderground v.1.15,2013-02-17 23:13:00,
2013-02-17 18:16:00,14.4,1.9,29.66,South,176,2.0,9.0,57,0.00,,,0.00,Wunderground v.1.15,2013-02-17 23:16:00,
2013-02-17 18:17:00,14.3,1.8,29.65,South,176,3.0,9.0,57,0.00,,,0.00,Wunderground v.1.15,2013-02-17 23:17:00,
2013-02-17 18:18:00,14.3,1.8,29.66,South,176,1.0,11.0,57,0.00,,,0.00,Wunderground v.1.15,2013-02-17 23:18:00,
2013-02-17 18:21:00,14.3,1.8,29.66,South,176,3.0,5.0,57,0.00,,,0.00,Wunderground v.1.15,2013-02-17 23:21:00,
2013-02-17 18:22:00,14.3,1.8,29.66,South,176,2.0,5.0,57,0.00,,,0.00,Wunderground v.1.15,2013-02-17 23:22:00,
2013-02-17 18:23:00,14.3,1.8,29.66,South,176,2.0,7.0,57,0.00,,,0.00,Wunderground v.1.15,2013-02-17 23:23:00,
2013-02-17 18:27:00,14.2,1.4,29.67,South,176,1.0,9.0,56,0.00,,,0.00,Wunderground v.1.15,2013-02-17 23:27:00,
2013-02-17 18:29:00,14.2,1.4,29.66,South,176,1.0,9.0,56,0.00,,,0.00,Wunderground v.1.15,2013-02-17 23:29:00,
2013-02-17 18:32:00,14.2,1.4,29.65,ENE,70,10.0,12.0,56,0.00,,,0.00,Wunderground v.1.15,2013-02-17 23:32:00,
2013-02-17 18:34:00,14.1,1.3,29.66,South,170,3.0,12.0,56,0.00,,,0.00,Wunderground v.1.15,2013-02-17 23:34:00,
2013-02-17 18:37:00,14.1,1.3,29.66,South,170,2.0,12.0,56,0.00,,,0.00,Wunderground v.1.15,2013-02-17 23:37:00,
2013-02-17 18:38:00,14.1,1.3,29.66,South,170,2.0,12.0,56,0.00,,,0.00,Wunderground v.1.15,2013-02-17 23:38:00,
2013-02-17 18:39:00,14.1,1.6,29.65,South,170,7.0,13.0,57,0.00,,,0.00,Wunderground v.1.15,2013-02-17 23:39:00,
2013-02-17 18:42:00,14.0,1.5,29.66,South,170,4.0,13.0,57,0.00,,,0.00,Wunderground v.1.15,2013-02-17 23:42:00,
2013-02-17 18:43:00,14.0,1.9,29.66,South,170,2.0,13.0,58,0.00,,,0.00,Wunderground v.1.15,2013-02-17 23:43:00,
2013-02-17 18:44:00,14.0,1.9,29.66,South,170,2.0,13.0,58,0.00,,,0.00,Wunderground v.1.15,2013-02-17 23:44:00,
2013-02-17 18:47:00,14.0,1.5,29.66,South,170,3.0,13.0,57,0.00,,,0.00,Wunderground v.1.15,2013-02-17 23:47:00,
2013-02-17 18:48:00,14.0,1.5,29.66,South,170,1.0,13.0,57,0.00,,,0.00,Wunderground v.1.15,2013-02-17 23:48:00,
2013-02-17 18:49:00,14.0,1.5,29.66,South,170,4.0,13.0,57,0.00,,,0.00,Wunderground v.1.15,2013-02-17 23:49:00,
2013-02-17 18:52:00,13.9,1.5,29.66,South,171,1.0,6.0,57,0.00,,,0.00,Wunderground v.1.15,2013-02-17 23:52:00,
2013-02-17 18:53:00,13.9,1.5,29.66,South,170,4.0,6.0,57,0.00,,,0.00,Wunderground v.1.15,2013-02-17 23:53:00,
2013-02-17 18:54:00,13.9,1.8,29.66,South,170,3.0,6.0,58,0.00,,,0.00,Wunderground v.1.15,2013-02-17 23:54:00,
2013-02-17 18:57:00,13.9,1.8,29.66,South,171,1.0,7.0,58,0.00,,,0.00,Wunderground v.1.15,2013-02-17 23:57:00,
2013-02-17 18:58:00,13.9,1.8,29.66,South,170,3.0,7.0,58,0.00,,,0.00,Wunderground v.1.15,2013-02-17 23:58:00,
2013-02-17 18:59:00,13.9,1.5,29.67,South,170,2.0,7.0,57,0.00,,,0.00,Wunderground v.1.15,2013-02-17 23:59:00,
2013-02-17 19:02:00,13.8,1.4,29.67,South,170,4.0,6.0,57,0.00,,,0.00,Wunderground v.1.15,2013-02-18 00:02:00,
2013-02-17 19:03:00,13.8,1.4,29.67,South,170,4.0,6.0,57,0.00,,,0.00,Wunderground v.1.15,2013-02-18 00:03:00,
2013-02-17 19:04:00,13.8,1.4,29.67,ESE,108,3.0,12.0,57,0.00,,,0.00,Wunderground v.1.15,2013-02-18 00:04:00,
2013-02-17 19:07:00,13.7,1.3,29.67,South,171,2.0,12.0,57,0.00,,,0.00,Wunderground v.1.15,2013-02-18 00:07:00,
2013-02-17 19:08:00,13.7,1.3,29.67,South,170,3.0,12.0,57,0.00,,,0.00,Wunderground v.1.15,2013-02-18 00:08:00,
2013-02-17 19:09:00,13.7,1.3,29.67,South,170,2.0,12.0,57,0.00,,,0.00,Wunderground v.1.15,2013-02-18 00:09:00,
2013-02-17 19:10:00,13.7,1.6,29.67,South,170,3.0,4.0,58,0.00,,,0.00,Wunderground v.1.15,2013-02-18 00:10:00,
2013-02-17 19:13:00,13.6,1.2,29.67,South,170,3.0,7.0,57,0.00,,,0.00,Wunderground v.1.15,2013-02-18 00:13:00,
2013-02-17 19:14:00,13.6,1.5,29.67,South,170,2.0,7.0,58,0.00,,,0.00,Wunderground v.1.15,2013-02-18 00:14:00,
2013-02-17 19:15:00,13.6,1.5,29.67,South,170,1.0,7.0,58,0.00,,,0.00,Wunderground v.1.15,2013-02-18 00:15:00,
2013-02-17 19:18:00,13.5,0.7,29.67,SE,125,5.0,10.0,56,0.00,,,0.00,Wunderground v.1.15,2013-02-18 00:18:00,
2013-02-17 19:19:00,13.5,0.7,29.67,ENE,65,6.0,10.0,56,0.00,,,0.00,Wunderground v.1.15,2013-02-18 00:19:00,
2013-02-17 19:20:00,13.4,0.6,29.67,South,177,1.0,3.0,56,0.00,,,0.00,Wunderground v.1.15,2013-02-18 00:20:00,
2013-02-17 19:23:00,13.4,1.0,29.68,South,177,2.0,8.0,57,0.00,,,0.00,Wunderground v.1.15,2013-02-18 00:23:00,
2013-02-17 19:24:00,13.4,1.0,29.67,South,177,1.0,8.0,57,0.00,,,0.00,Wunderground v.1.15,2013-02-18 00:24:00,
2013-02-17 19:25:00,13.4,1.0,29.67,South,177,3.0,8.0,57,0.00,,,0.00,Wunderground v.1.15,2013-02-18 00:25:00,
2013-02-17 19:28:00,13.3,0.5,29.68,South,177,2.0,8.0,56,0.00,,,0.00,Wunderground v.1.15,2013-02-18 00:28:00,
2013-02-17 19:29:00,13.3,0.5,29.68,South,177,7.0,8.0,56,0.00,,,0.00,Wunderground v.1.15,2013-02-18 00:29:00,
2013-02-17 19:30:00,13.3,0.9,29.68,South,177,4.0,7.0,57,0.00,,,0.00,Wunderground v.1.15,2013-02-18 00:30:00,
2013-02-17 19:33:00,13.2,0.8,29.68,South,177,1.0,7.0,57,0.00,,,0.00,Wunderground v.1.15,2013-02-18 00:33:00,
2013-02-17 19:34:00,13.2,0.8,29.68,South,177,1.0,7.0,57,0.00,,,0.00,Wunderground v.1.15,2013-02-18 00:34:00,
2013-02-17 19:35:00,13.2,0.8,29.68,South,177,3.0,7.0,57,0.00,,,0.00,Wunderground v.1.15,2013-02-18 00:35:00,
2013-02-17 19:38:00,13.2,0.8,29.68,South,177,1.0,7.0,57,0.00,,,0.00,Wunderground v.1.15,2013-02-18 00:38:00,
2013-02-17 19:39:00,13.2,0.8,29.68,South,177,3.0,7.0,57,0.00,,,0.00,Wunderground v.1.15,2013-02-18 00:39:00,
2013-02-17 19:41:00,13.1,0.7,29.68,South,177,0.0,3.0,57,0.00,,,0.00,Wunderground v.1.15,2013-02-18 00:41:00,
2013-02-17 19:43:00,13.1,0.3,29.68,South,177,1.0,8.0,56,0.00,,,0.00,Wunderground v.1.15,2013-02-18 00:43:00,
2013-02-17 19:44:00,13.1,0.7,29.68,South,177,4.0,8.0,57,0.00,,,0.00,Wunderground v.1.15,2013-02-18 00:44:00,
2013-02-17 19:46:00,13.1,0.3,29.69,South,177,5.0,8.0,56,0.00,,,0.00,Wunderground v.1.15,2013-02-18 00:46:00,
2013-02-17 19:48:00,13.0,0.2,29.68,South,177,4.0,8.0,56,0.00,,,0.00,Wunderground v.1.15,2013-02-18 00:48:00,
2013-02-17 19:49:00,13.0,0.2,29.68,South,177,2.0,8.0,56,0.00,,,0.00,Wunderground v.1.15,2013-02-18 00:49:00,
2013-02-17 19:51:00,13.0,0.6,29.68,South,177,2.0,4.0,57,0.00,,,0.00,Wunderground v.1.15,2013-02-18 00:51:00,
2013-02-17 19:53:00,12.9,0.9,29.69,South,177,3.0,6.0,58,0.00,,,0.00,Wunderground v.1.15,2013-02-18 00:53:00,
2013-02-17 19:55:00,12.9,0.9,29.69,South,177,3.0,6.0,58,0.00,,,0.00,Wunderground v.1.15,2013-02-18 00:55:00,
2013-02-17 19:56:00,12.8,0.4,29.69,South,177,1.0,6.0,57,0.00,,,0.00,Wunderground v.1.15,2013-02-18 00:56:00,
2013-02-17 19:59:00,12.8,0.8,29.69,South,177,1.0,6.0,58,0.00,,,0.00,Wunderground v.1.15,2013-02-18 00:59:00,
2013-02-17 20:00:00,12.8,0.4,29.69,South,177,3.0,3.0,57,0.00,,,0.00,Wunderground v.1.15,2013-02-18 01:00:00,
2013-02-17 20:02:00,12.7,0.7,29.69,South,177,0.0,5.0,58,0.00,,,0.00,Wunderground v.1.15,2013-02-18 01:02:00,
2013-02-17 20:04:00,12.7,0.3,29.69,South,177,1.0,5.0,57,0.00,,,0.00,Wunderground v.1.15,2013-02-18 01:04:00,
2013-02-17 20:05:00,12.6,0.2,29.69,South,177,2.0,5.0,57,0.00,,,0.00,Wunderground v.1.15,2013-02-18 01:05:00,
2013-02-17 20:07:00,12.6,0.6,29.69,South,177,1.0,6.0,58,0.00,,,0.00,Wunderground v.1.15,2013-02-18 01:07:00,
2013-02-17 20:09:00,12.6,0.2,29.69,South,177,6.0,6.0,57,0.00,,,0.00,Wunderground v.1.15,2013-02-18 01:09:00,
2013-02-17 20:10:00,12.5,0.1,29.69,South,177,2.0,5.0,57,0.00,,,0.00,Wunderground v.1.15,2013-02-18 01:10:00,
2013-02-17 20:12:00,12.5,0.5,29.69,South,177,3.0,8.0,58,0.00,,,0.00,Wunderground v.1.15,2013-02-18 01:12:00,
2013-02-17 20:14:00,12.4,0.8,29.70,South,177,2.0,8.0,59,0.00,,,0.00,Wunderground v.1.15,2013-02-18 01:14:00,
2013-02-17 20:15:00,12.4,0.8,29.70,South,177,1.0,8.0,59,0.00,,,0.00,Wunderground v.1.15,2013-02-18 01:15:00,
2013-02-17 20:17:00,12.3,0.3,29.70,South,177,3.0,8.0,58,0.00,,,0.00,Wunderground v.1.15,2013-02-18 01:17:00,
2013-02-17 20:19:00,12.2,0.6,29.70,South,178,2.0,8.0,59,0.00,,,0.00,Wunderground v.1.15,2013-02-18 01:19:00,
2013-02-17 20:20:00,12.2,0.9,29.70,South,177,3.0,3.0,60,0.00,,,0.00,Wunderground v.1.15,2013-02-18 01:20:00,
2013-02-17 20:22:00,12.2,0.6,29.70,South,176,3.0,10.0,59,0.00,,,0.00,Wunderground v.1.15,2013-02-18 01:22:00,
2013-02-17 20:24:00,12.1,0.5,29.70,South,176,1.0,10.0,59,0.00,,,0.00,Wunderground v.1.15,2013-02-18 01:24:00,
2013-02-17 20:25:00,12.1,0.5,29.70,South,176,2.0,10.0,59,0.00,,,0.00,Wunderground v.1.15,2013-02-18 01:25:00,
2013-02-17 20:27:00,12.0,0.4,29.70,South,176,2.0,10.0,59,0.00,,,0.00,Wunderground v.1.15,2013-02-18 01:27:00,
2013-02-17 20:29:00,11.9,0.7,29.70,South,176,3.0,10.0,60,0.00,,,0.00,Wunderground v.1.15,2013-02-18 01:29:00,
2013-02-17 20:30:00,11.9,0.7,29.70,South,176,4.0,4.0,60,0.00,,,0.00,Wunderground v.1.15,2013-02-18 01:30:00,
2013-02-17 20:31:00,11.9,0.7,29.70,South,176,2.0,8.0,60,0.00,,,0.00,Wunderground v.1.15,2013-02-18 01:31:00,
2013-02-17 20:32:00,11.8,0.2,29.70,South,176,3.0,8.0,59,0.00,,,0.00,Wunderground v.1.15,2013-02-18 01:32:00,
2013-02-17 20:34:00,11.8,0.6,29.70,South,176,1.0,8.0,60,0.00,,,0.00,Wunderground v.1.15,2013-02-18 01:34:00,
2013-02-17 20:35:00,11.8,0.6,29.70,South,176,0.0,8.0,60,0.00,,,0.00,Wunderground v.1.15,2013-02-18 01:35:00,
2013-02-17 20:36:00,11.8,0.6,29.70,South,176,0.0,8.0,60,0.00,,,0.00,Wunderground v.1.15,2013-02-18 01:36:00,
2013-02-17 20:38:00,11.7,0.8,29.70,South,176,3.0,8.0,61,0.00,,,0.00,Wunderground v.1.15,2013-02-18 01:38:00,
2013-02-17 20:39:00,11.6,0.4,29.70,South,176,3.0,8.0,60,0.00,,,0.00,Wunderground v.1.15,2013-02-18 01:39:00,
2013-02-17 20:40:00,11.7,0.8,29.70,South,176,2.0,3.0,61,0.00,,,0.00,Wunderground v.1.15,2013-02-18 01:40:00,
2013-02-17 20:41:00,11.6,0.7,29.71,South,176,2.0,4.0,61,0.00,,,0.00,Wunderground v.1.15,2013-02-18 01:41:00,
2013-02-17 20:43:00,11.5,1.0,29.70,South,176,2.0,4.0,62,0.00,,,0.00,Wunderground v.1.15,2013-02-18 01:43:00,
2013-02-17 20:45:00,11.5,0.6,29.70,South,176,4.0,8.0,61,0.00,,,0.00,Wunderground v.1.15,2013-02-18 01:45:00,
2013-02-17 20:46:00,11.4,0.5,29.70,South,176,2.0,8.0,61,0.00,,,0.00,Wunderground v.1.15,2013-02-18 01:46:00,
2013-02-17 20:48:00,11.4,0.5,29.71,South,176,0.0,8.0,61,0.00,,,0.00,Wunderground v.1.15,2013-02-18 01:48:00,
2013-02-17 20:50:00,11.3,0.4,29.70,South,176,4.0,5.0,61,0.00,,,0.00,Wunderground v.1.15,2013-02-18 01:50:00,
2013-02-17 20:51:00,11.3,0.8,29.71,South,176,2.0,5.0,62,0.00,,,0.00,Wunderground v.1.15,2013-02-18 01:51:00,
2013-02-17 20:53:00,11.1,0.3,29.71,South,176,5.0,7.0,61,0.00,,,0.00,Wunderground v.1.15,2013-02-18 01:53:00,
2013-02-17 20:55:00,11.1,0.3,29.71,South,176,1.0,7.0,61,0.00,,,0.00,Wunderground v.1.15,2013-02-18 01:55:00,
2013-02-17 20:56:00,11.0,0.5,29.71,South,176,1.0,7.0,62,0.00,,,0.00,Wunderground v.1.15,2013-02-18 01:56:00,
2013-02-17 20:58:00,10.9,0.8,29.70,South,176,3.0,7.0,63,0.00,,,0.00,Wunderground v.1.15,2013-02-18 01:58:00,
2013-02-17 21:01:00,10.9,0.4,29.70,South,176,1.0,2.0,62,0.00,,,0.00,Wunderground v.1.15,2013-02-18 02:01:00,
2013-02-17 21:03:00,10.7,0.6,29.71,South,175,2.0,5.0,63,0.00,,,0.00,Wunderground v.1.15,2013-02-18 02:03:00,
2013-02-17 21:06:00,10.6,0.1,29.71,South,176,4.0,6.0,62,0.00,,,0.00,Wunderground v.1.15,2013-02-18 02:06:00,
2013-02-17 21:08:00,10.5,0.4,29.71,South,176,2.0,9.0,63,0.00,,,0.00,Wunderground v.1.15,2013-02-18 02:08:00,
2013-02-17 21:11:00,10.3,0.2,29.71,South,176,3.0,5.0,63,0.00,,,0.00,Wunderground v.1.15,2013-02-18 02:11:00,
2013-02-17 21:12:00,10.3,0.2,29.71,South,176,3.0,5.0,63,0.00,,,0.00,Wunderground v.1.15,2013-02-18 02:12:00,
2013-02-17 21:13:00,10.2,0.1,29.71,South,176,1.0,8.0,63,0.00,,,0.00,Wunderground v.1.15,2013-02-18 02:13:00,
2013-02-17 21:17:00,10.1,0.3,29.71,South,176,1.0,10.0,64,0.00,,,0.00,Wunderground v.1.15,2013-02-18 02:17:00,
2013-02-17 21:18:00,10.0,-0.1,29.71,South,176,2.0,10.0,63,0.00,,,0.00,Wunderground v.1.15,2013-02-18 02:18:00,
2013-02-17 21:22:00,9.9,0.1,29.71,South,176,3.0,3.0,64,0.00,,,0.00,Wunderground v.1.15,2013-02-18 02:22:00,
2013-02-17 21:23:00,9.9,0.1,29.72,South,176,1.0,7.0,64,0.00,,,0.00,Wunderground v.1.15,2013-02-18 02:23:00,
2013-02-17 21:27:00,9.8,0.0,29.72,South,176,10.0,13.0,64,0.00,,,0.00,Wunderground v.1.15,2013-02-18 02:27:00,
2013-02-17 21:28:00,9.8,0.0,29.72,South,176,4.0,13.0,64,0.00,,,0.00,Wunderground v.1.15,2013-02-18 02:28:00,
2013-02-17 21:32:00,9.6,0.2,29.72,South,176,1.0,3.0,65,0.00,,,0.00,Wunderground v.1.15,2013-02-18 02:32:00,
2013-02-17 21:33:00,9.6,0.2,29.72,South,176,2.0,3.0,65,0.00,,,0.00,Wunderground v.1.15,2013-02-18 02:33:00,
2013-02-17 21:37:00,9.5,0.1,29.72,South,176,1.0,7.0,65,0.00,,,0.00,Wunderground v.1.15,2013-02-18 02:37:00,
2013-02-17 21:38:00,9.5,0.1,29.72,South,176,2.0,7.0,65,0.00,,,0.00,Wunderground v.1.15,2013-02-18 02:38:00,
2013-02-17 21:39:00,9.5,0.1,29.72,South,176,6.0,7.0,65,0.00,,,0.00,Wunderground v.1.15,2013-02-18 02:39:00,
2013-02-17 21:42:00,9.4,0.0,29.72,South,176,1.0,2.0,65,0.00,,,0.00,Wunderground v.1.15,2013-02-18 02:42:00,
2013-02-17 21:43:00,9.4,0.0,29.72,South,176,3.0,6.0,65,0.00,,,0.00,Wunderground v.1.15,2013-02-18 02:43:00,
2013-02-17 21:44:00,9.4,0.0,29.72,South,176,2.0,8.0,65,0.00,,,0.00,Wunderground v.1.15,2013-02-18 02:44:00,
2013-02-17 21:47:00,9.3,-0.1,29.73,South,176,1.0,9.0,65,0.00,,,0.00,Wunderground v.1.15,2013-02-18 02:47:00,
2013-02-17 21:48:00,9.3,0.2,29.73,South,176,5.0,9.0,66,0.00,,,0.00,Wunderground v.1.15,2013-02-18 02:48:00,
2013-02-17 21:49:00,9.2,0.1,29.73,South,176,8.0,9.0,66,0.00,,,0.00,Wunderground v.1.15,2013-02-18 02:49:00,
2013-02-17 21:52:00,9.2,0.1,29.73,South,176,2.0,7.0,66,0.00,,,0.00,Wunderground v.1.15,2013-02-18 02:52:00,
2013-02-17 21:53:00,9.2,0.1,29.72,South,176,1.0,7.0,66,0.00,,,0.00,Wunderground v.1.15,2013-02-18 02:53:00,
2013-02-17 21:54:00,9.1,0.0,29.73,South,176,3.0,7.0,66,0.00,,,0.00,Wunderground v.1.15,2013-02-18 02:54:00,
2013-02-17 21:57:00,9.1,0.0,29.73,South,176,3.0,7.0,66,0.00,,,0.00,Wunderground v.1.15,2013-02-18 02:57:00,
2013-02-17 21:58:00,9.0,-0.1,29.73,South,176,2.0,7.0,66,0.00,,,0.00,Wunderground v.1.15,2013-02-18 02:58:00,
2013-02-17 21:59:00,9.0,-0.1,29.73,South,176,2.0,7.0,66,0.00,,,0.00,Wunderground v.1.15,2013-02-18 02:59:00,
2013-02-17 22:02:00,8.9,0.2,29.73,South,176,1.0,5.0,67,0.00,,,0.00,Wunderground v.1.15,2013-02-18 03:02:00,
2013-02-17 22:03:00,8.9,0.2,29.73,South,176,1.0,5.0,67,0.00,,,0.00,Wunderground v.1.15,2013-02-18 03:03:00,
2013-02-17 22:04:00,9.0,-0.1,29.74,South,176,3.0,5.0,66,0.00,,,0.00,Wunderground v.1.15,2013-02-18 03:04:00,
2013-02-17 22:08:00,8.9,0.2,29.74,South,176,3.0,7.0,67,0.00,,,0.00,Wunderground v.1.15,2013-02-18 03:08:00,
2013-02-17 22:09:00,8.9,0.5,29.74,South,176,3.0,7.0,68,0.00,,,0.00,Wunderground v.1.15,2013-02-18 03:09:00,
2013-02-17 22:13:00,8.8,0.1,29.74,South,176,2.0,6.0,67,0.00,,,0.00,Wunderground v.1.15,2013-02-18 03:13:00,
2013-02-17 22:14:00,8.8,0.1,29.74,South,176,3.0,6.0,67,0.00,,,0.00,Wunderground v.1.15,2013-02-18 03:14:00,
2013-02-17 22:18:00,8.7,0.0,29.74,South,176,2.0,11.0,67,0.00,,,0.00,Wunderground v.1.15,2013-02-18 03:18:00,
2013-02-17 22:19:00,8.7,0.0,29.74,South,176,3.0,11.0,67,0.00,,,0.00,Wunderground v.1.15,2013-02-18 03:19:00,
2013-02-17 22:23:00,8.6,-0.1,29.75,South,176,4.0,5.0,67,0.00,,,0.00,Wunderground v.1.15,2013-02-18 03:23:00,
2013-02-17 22:24:00,8.6,-0.1,29.75,South,176,3.0,7.0,67,0.00,,,0.00,Wunderground v.1.15,2013-02-18 03:24:00,
2013-02-17 22:25:00,8.6,-0.1,29.75,South,176,1.0,7.0,67,0.00,,,0.00,Wunderground v.1.15,2013-02-18 03:25:00,
2013-02-17 22:28:00,8.5,-0.2,29.75,South,176,1.0,9.0,67,0.00,,,0.00,Wunderground v.1.15,2013-02-18 03:28:00,
2013-02-17 22:29:00,8.5,-0.2,29.75,South,176,6.0,9.0,67,0.00,,,0.00,Wunderground v.1.15,2013-02-18 03:29:00,
2013-02-17 22:30:00,8.5,-0.2,29.75,South,176,3.0,3.0,67,0.00,,,0.00,Wunderground v.1.15,2013-02-18 03:30:00,
2013-02-17 22:33:00,8.5,-0.2,29.75,South,176,2.0,9.0,67,0.00,,,0.00,Wunderground v.1.15,2013-02-18 03:33:00,
2013-02-17 22:34:00,8.5,-0.2,29.76,South,176,2.0,9.0,67,0.00,,,0.00,Wunderground v.1.15,2013-02-18 03:34:00,
2013-02-17 22:35:00,8.5,-0.2,29.76,South,176,1.0,9.0,67,0.00,,,0.00,Wunderground v.1.15,2013-02-18 03:35:00,
2013-02-17 22:38:00,8.5,-0.2,29.77,South,176,4.0,9.0,67,0.00,,,0.00,Wunderground v.1.15,2013-02-18 03:38:00,
2013-02-17 22:39:00,8.5,0.1,29.77,South,176,6.0,11.0,68,0.00,,,0.00,Wunderground v.1.15,2013-02-18 03:39:00,
2013-02-17 22:40:00,8.5,0.1,29.76,South,176,1.0,4.0,68,0.00,,,0.00,Wunderground v.1.15,2013-02-18 03:40:00,
2013-02-17 22:43:00,8.4,-0.3,29.77,South,176,6.0,7.0,67,0.00,,,0.00,Wunderground v.1.15,2013-02-18 03:43:00,
2013-02-17 22:44:00,8.4,-0.3,29.76,South,176,1.0,7.0,67,0.00,,,0.00,Wunderground v.1.15,2013-02-18 03:44:00,
2013-02-17 22:45:00,8.4,-0.3,29.78,South,176,3.0,10.0,67,0.00,,,0.00,Wunderground v.1.15,2013-02-18 03:45:00,
2013-02-17 22:48:00,8.4,0.0,29.77,South,176,1.0,10.0,68,0.00,,,0.00,Wunderground v.1.15,2013-02-18 03:48:00,
2013-02-17 22:50:00,8.4,0.0,29.77,South,176,3.0,4.0,68,0.00,,,0.00,Wunderground v.1.15,2013-02-18 03:50:00,
2013-02-17 22:51:00,8.4,0.0,29.77,South,176,0.0,4.0,68,0.00,,,0.00,Wunderground v.1.15,2013-02-18 03:51:00,
2013-02-17 22:53:00,8.4,0.0,29.77,South,176,2.0,4.0,68,0.00,,,0.00,Wunderground v.1.15,2013-02-18 03:53:00,
2013-02-17 22:55:00,8.3,-0.1,29.77,South,176,2.0,4.0,68,0.00,,,0.00,Wunderground v.1.15,2013-02-18 03:55:00,
2013-02-17 22:56:00,8.3,-0.1,29.77,South,176,2.0,4.0,68,0.00,,,0.00,Wunderground v.1.15,2013-02-18 03:56:00,
2013-02-17 22:59:00,8.3,-0.1,29.77,South,176,3.0,7.0,68,0.00,,,0.00,Wunderground v.1.15,2013-02-18 03:59:00,
2013-02-17 23:00:00,8.3,-0.1,29.77,South,176,5.0,5.0,68,0.00,,,0.00,Wunderground v.1.15,2013-02-18 04:00:00,
2013-02-17 23:02:00,8.3,-0.1,29.77,South,176,2.0,6.0,68,0.00,,,0.00,Wunderground v.1.15,2013-02-18 04:02:00,
2013-02-17 23:04:00,8.2,-0.2,29.78,South,176,7.0,7.0,68,0.00,,,0.00,Wunderground v.1.15,2013-02-18 04:04:00,
2013-02-17 23:05:00,8.2,-0.2,29.78,South,176,1.0,10.0,68,0.00,,,0.00,Wunderground v.1.15,2013-02-18 04:05:00,
2013-02-17 23:07:00,8.2,-0.2,29.77,South,176,1.0,10.0,68,0.00,,,0.00,Wunderground v.1.15,2013-02-18 04:07:00,
2013-02-17 23:09:00,8.2,-0.2,29.78,South,176,1.0,10.0,68,0.00,,,0.00,Wunderground v.1.15,2013-02-18 04:09:00,
2013-02-17 23:10:00,8.2,-0.2,29.78,South,176,3.0,3.0,68,0.00,,,0.00,Wunderground v.1.15,2013-02-18 04:10:00,
2013-02-17 23:12:00,8.2,-0.2,29.78,South,176,1.0,5.0,68,0.00,,,0.00,Wunderground v.1.15,2013-02-18 04:12:00,
2013-02-17 23:14:00,8.1,-0.3,29.77,South,176,2.0,5.0,68,0.00,,,0.00,Wunderground v.1.15,2013-02-18 04:14:00,
2013-02-17 23:15:00,8.1,-0.3,29.78,South,175,2.0,5.0,68,0.00,,,0.00,Wunderground v.1.15,2013-02-18 04:15:00,
2013-02-17 23:16:00,8.1,-0.3,29.78,South,176,3.0,5.0,68,0.00,,,0.00,Wunderground v.1.15,2013-02-18 04:16:00,
2013-02-17 23:17:00,8.2,-0.2,29.78,South,176,3.0,7.0,68,0.00,,,0.00,Wunderground v.1.15,2013-02-18 04:17:00,
2013-02-17 23:19:00,8.1,-0.3,29.78,South,176,2.0,7.0,68,0.00,,,0.00,Wunderground v.1.15,2013-02-18 04:19:00,
2013-02-17 23:21:00,8.1,-0.3,29.78,South,176,4.0,4.0,68,0.00,,,0.00,Wunderground v.1.15,2013-02-18 04:21:00,
2013-02-17 23:23:00,8.1,-0.3,29.78,South,176,6.0,6.0,68,0.00,,,0.00,Wunderground v.1.15,2013-02-18 04:23:00,
2013-02-17 23:24:00,8.1,-0.3,29.78,South,176,7.0,8.0,68,0.00,,,0.00,Wunderground v.1.15,2013-02-18 04:24:00,
2013-02-17 23:26:00,8.1,-0.3,29.78,South,176,4.0,8.0,68,0.00,,,0.00,Wunderground v.1.15,2013-02-18 04:26:00,
2013-02-17 23:28:00,8.0,-0.4,29.78,South,176,2.0,9.0,68,0.00,,,0.00,Wunderground v.1.15,2013-02-18 04:28:00,
2013-02-17 23:29:00,8.0,-0.4,29.78,South,176,1.0,9.0,68,0.00,,,0.00,Wunderground v.1.15,2013-02-18 04:29:00,
2013-02-17 23:31:00,8.0,-0.4,29.79,South,176,2.0,4.0,68,0.00,,,0.00,Wunderground v.1.15,2013-02-18 04:31:00,
2013-02-17 23:33:00,8.1,-0.3,29.79,South,176,4.0,6.0,68,0.00,,,0.00,Wunderground v.1.15,2013-02-18 04:33:00,
2013-02-17 23:34:00,8.0,-0.1,29.78,South,176,2.0,6.0,69,0.00,,,0.00,Wunderground v.1.15,2013-02-18 04:34:00,
2013-02-17 23:36:00,8.0,-0.1,29.78,South,176,2.0,8.0,69,0.00,,,0.00,Wunderground v.1.15,2013-02-18 04:36:00,
2013-02-17 23:38:00,8.0,-0.1,29.78,South,176,3.0,8.0,69,0.00,,,0.00,Wunderground v.1.15,2013-02-18 04:38:00,
2013-02-17 23:39:00,8.0,-0.4,29.79,South,176,3.0,8.0,68,0.00,,,0.00,Wunderground v.1.15,2013-02-18 04:39:00,
2013-02-17 23:41:00,8.0,-0.4,29.79,South,176,3.0,8.0,68,0.00,,,0.00,Wunderground v.1.15,2013-02-18 04:41:00,
2013-02-17 23:43:00,8.0,-0.1,29.78,South,176,2.0,8.0,69,0.00,,,0.00,Wunderground v.1.15,2013-02-18 04:43:00,
2013-02-17 23:44:00,8.0,-0.4,29.79,South,176,3.0,8.0,68,0.00,,,0.00,Wunderground v.1.15,2013-02-18 04:44:00,
2013-02-17 23:46:00,8.0,-0.4,29.79,South,176,2.0,8.0,68,0.00,,,0.00,Wunderground v.1.15,2013-02-18 04:46:00,
2013-02-17 23:47:00,8.0,-0.4,29.79,South,176,4.0,8.0,68,0.00,,,0.00,Wunderground v.1.15,2013-02-18 04:47:00,
2013-02-17 23:48:00,8.0,-0.4,29.79,South,176,1.0,8.0,68,0.00,,,0.00,Wunderground v.1.15,2013-02-18 04:48:00,
2013-02-17 23:49:00,7.9,-0.5,29.79,South,176,2.0,8.0,68,0.00,,,0.00,Wunderground v.1.15,2013-02-18 04:49:00,
2013-02-17 23:51:00,7.9,-0.5,29.80,South,176,5.0,7.0,68,0.00,,,0.00,Wunderground v.1.15,2013-02-18 04:51:00,
2013-02-17 23:52:00,8.0,-0.4,29.79,South,176,4.0,7.0,68,0.00,,,0.00,Wunderground v.1.15,2013-02-18 04:52:00,
2013-02-17 23:53:00,7.9,-0.5,29.80,South,176,2.0,7.0,68,0.00,,,0.00,Wunderground v.1.15,2013-02-18 04:53:00,
2013-02-17 23:54:00,7.9,-0.5,29.80,South,176,5.0,7.0,68,0.00,,,0.00,Wunderground v.1.15,2013-02-18 04:54:00,
2013-02-17 23:57:00,7.9,-0.2,29.80,South,176,2.0,7.0,69,0.00,,,0.00,Wunderground v.1.15,2013-02-18 04:57:00,
2013-02-17 23:59:00,7.9,-0.2,29.80,South,176,4.0,9.0,69,0.00,,,0.00,Wunderground v.1.15,2013-02-18 04:59:00,